Observation data for Crowell on 05/25/2019      Previous  Date  Next       Current Mesonet Observations  Soil Data  Daily Summary Page  Observations in Plain Language
KCR1 250500Z 11005KT 19/18 A2998 RMK A01 T01850176  RH  094%=      5-min Rain = 0
KCR1 250501Z 10006KT 19/18 A2998 RMK A01 T01850176  RH  094%=      5-min Rain = 0
KCR1 250502Z 11006KT 19/18 A2998 RMK A01 T01850176  RH  094%=      5-min Rain = 0
KCR1 250503Z 11007KT 19/18 A2998 RMK A01 T01850176  RH  094%=      5-min Rain = 0
KCR1 250504Z 11007KT 19/18 A2998 RMK A01 T01850175  RH  094%=      5-min Rain = 0
KCR1 250505Z 11007KT 19/18 A2997 RMK A01 T01850175  RH  094%=      5-min Rain = 0
KCR1 250506Z 11006KT 19/18 A2997 RMK A01 T01850175  RH  094%=      5-min Rain = 0
KCR1 250507Z 11007KT 19/18 A2997 RMK A01 T01850175  RH  094%=      5-min Rain = 0
KCR1 250508Z 11007KT 18/17 A2997 RMK A01 T01840174  RH  094%=      5-min Rain = 0
KCR1 250509Z 11007KT 18/17 A2998 RMK A01 T01840174  RH  093%=      5-min Rain = 0
KCR1 250510Z 12007KT 18/17 A2998 RMK A01 T01840174  RH  093%=      5-min Rain = 0
KCR1 250511Z 11007KT 18/17 A2998 RMK A01 T01840173  RH  093%=      5-min Rain = 0
KCR1 250512Z 12007KT 18/17 A2998 RMK A01 T01840174  RH  094%=      5-min Rain = 0
KCR1 250513Z 12007KT 18/17 A2997 RMK A01 T01840174  RH  094%=      5-min Rain = 0
KCR1 250514Z 12008KT 18/17 A2997 RMK A01 T01840174  RH  094%=      5-min Rain = 0
KCR1 250515Z 11008KT 19/18 A2997 RMK A01 T01850175  RH  094%=      5-min Rain = 0
KCR1 250516Z 11007KT 18/18 A2997 RMK A01 T01840175  RH  094%=      5-min Rain = 0
KCR1 250517Z 11008KT 18/18 A2997 RMK A01 T01840175  RH  094%=      5-min Rain = 0
KCR1 250518Z 10008KT 18/18 A2997 RMK A01 T01840175  RH  094%=      5-min Rain = 0
KCR1 250519Z 11008KT 18/17 A2997 RMK A01 T01840174  RH  094%=      5-min Rain = 0
KCR1 250520Z 12008KT 18/17 A2997 RMK A01 T01840174  RH  094%=      5-min Rain = 0
KCR1 250521Z 12007KT 18/17 A2997 RMK A01 T01840174  RH  094%=      5-min Rain = 0
KCR1 250522Z 12008KT 18/17 A2997 RMK A01 T01840174  RH  094%=      5-min Rain = 0
KCR1 250523Z 13008KT 18/17 A2997 RMK A01 T01830173  RH  094%=      5-min Rain = 0
KCR1 250524Z 13008KT 18/17 A2998 RMK A01 T01840173  RH  094%=      5-min Rain = 0
KCR1 250525Z 12008KT 18/17 A2998 RMK A01 T01840173  RH  094%=      5-min Rain = 0
KCR1 250526Z 12008KT 18/17 A2998 RMK A01 T01840173  RH  094%=      5-min Rain = 0
KCR1 250527Z 11008KT 18/17 A2997 RMK A01 T01830172  RH  093%=      5-min Rain = 0
KCR1 250528Z 12008KT 18/17 A2997 RMK A01 T01830172  RH  093%=      5-min Rain = 0
KCR1 250529Z 12009KT 18/17 A2997 RMK A01 T01830172  RH  093%=      5-min Rain = 0
KCR1 250530Z 12008KT 18/17 A2997 RMK A01 T01840172  RH  093%=      5-min Rain = 0
KCR1 250531Z 12008KT 18/17 A2997 RMK A01 T01830172  RH  093%=      5-min Rain = 0
KCR1 250532Z 12007KT 18/17 A2997 RMK A01 T01830171  RH  093%=      5-min Rain = 0
KCR1 250533Z 12007KT 18/17 A2997 RMK A01 T01840172  RH  093%=      5-min Rain = 0
KCR1 250534Z 13008KT 18/17 A2997 RMK A01 T01840173  RH  093%=      5-min Rain = 0
KCR1 250535Z 13008KT 18/17 A2997 RMK A01 T01840172  RH  093%=      5-min Rain = 0
KCR1 250536Z 12008KT 18/17 A2997 RMK A01 T01840172  RH  093%=      5-min Rain = 0
KCR1 250537Z 12007KT 18/17 A2997 RMK A01 T01830172  RH  093%=      5-min Rain = 0
KCR1 250538Z 12008KT 18/17 A2997 RMK A01 T01830172  RH  093%=      5-min Rain = 0
KCR1 250539Z 12007KT 18/17 A2997 RMK A01 T01830172  RH  093%=      5-min Rain = 0
KCR1 250540Z 12007KT 18/17 A2997 RMK A01 T01830172  RH  093%=      5-min Rain = 0
KCR1 250541Z 12009KT 18/17 A2997 RMK A01 T01830172  RH  093%=      5-min Rain = 0
KCR1 250542Z 12009KT 18/17 A2997 RMK A01 T01830172  RH  093%=      5-min Rain = 0
KCR1 250543Z 12009KT 18/17 A2997 RMK A01 T01830172  RH  093%=      5-min Rain = 0
KCR1 250544Z 12009KT 18/17 A2997 RMK A01 T01830172  RH  093%=      5-min Rain = 0
KCR1 250545Z 13009KT 18/17 A2997 RMK A01 T01830172  RH  093%=      5-min Rain = 0
KCR1 250546Z 13010KT 18/17 A2997 RMK A01 T01830172  RH  093%=      5-min Rain = 0
KCR1 250547Z 13009KT 18/17 A2997 RMK A01 T01840172  RH  093%=      5-min Rain = 0
KCR1 250548Z 13009KT 18/17 A2996 RMK A01 T01830172  RH  093%=      5-min Rain = 0
KCR1 250549Z 13008KT 18/17 A2996 RMK A01 T01840172  RH  093%=      5-min Rain = 0
KCR1 250550Z 13008KT 18/17 A2997 RMK A01 T01840173  RH  093%=      5-min Rain = 0
KCR1 250551Z 13009KT 18/17 A2997 RMK A01 T01830173  RH  094%=      5-min Rain = 0
KCR1 250552Z 13008KT 18/17 A2997 RMK A01 T01830173  RH  094%=      5-min Rain = 0
KCR1 250553Z 13009KT 18/17 A2996 RMK A01 T01830174  RH  094%=      5-min Rain = 0
KCR1 250554Z 12010KT 18/17 A2996 RMK A01 T01830173  RH  094%=      5-min Rain = 0
KCR1 250555Z 12008KT 18/17 A2997 RMK A01 T01840174  RH  094%=      5-min Rain = 0
KCR1 250556Z 12009KT 18/17 A2996 RMK A01 T01830174  RH  094%=      5-min Rain = 0
KCR1 250557Z 12008KT 18/17 A2996 RMK A01 T01840174  RH  094%=      5-min Rain = 0
KCR1 250558Z 12008KT 18/17 A2997 RMK A01 T01840174  RH  094%=      5-min Rain = 0
KCR1 250559Z 13008KT 18/17 A2997 RMK A01 T01830174  RH  094%=      5-min Rain = 0
KCR1 250600Z 13008KT 18/17 A2997 RMK A01 T01830173  RH  094%=      5-min Rain = 0
KCR1 250601Z 13008KT 18/17 A2997 RMK A01 T01840174  RH  094%=      5-min Rain = 0
KCR1 250602Z 13009KT 18/17 A2997 RMK A01 T01830173  RH  094%=      5-min Rain = 0
KCR1 250603Z 12009KT 18/17 A2997 RMK A01 T01840173  RH  094%=      5-min Rain = 0
KCR1 250604Z 13009KT 18/17 A2996 RMK A01 T01830173  RH  094%=      5-min Rain = 0
KCR1 250605Z 12008KT 18/17 A2996 RMK A01 T01830172  RH  093%=      5-min Rain = 0
KCR1 250606Z 12009KT 18/17 A2996 RMK A01 T01840173  RH  093%=      5-min Rain = 0
KCR1 250607Z 12009KT 18/17 A2996 RMK A01 T01840173  RH  093%=      5-min Rain = 0
KCR1 250608Z 12008KT 18/17 A2996 RMK A01 T01830172  RH  093%=      5-min Rain = 0
KCR1 250609Z 12009KT 18/17 A2996 RMK A01 T01830172  RH  093%=      5-min Rain = 0
KCR1 250610Z 12010KT 18/17 A2996 RMK A01 T01830172  RH  093%=      5-min Rain = 0
KCR1 250611Z 12010KT 18/17 A2996 RMK A01 T01840172  RH  093%=      5-min Rain = 0
KCR1 250612Z 12009KT 18/17 A2996 RMK A01 T01830171  RH  093%=      5-min Rain = 0
KCR1 250613Z 12009KT 18/17 A2996 RMK A01 T01830171  RH  093%=      5-min Rain = 0
KCR1 250614Z 12008KT 18/17 A2996 RMK A01 T01840171  RH  093%=      5-min Rain = 0
KCR1 250615Z 13009KT 18/17 A2996 RMK A01 T01840172  RH  093%=      5-min Rain = 0
KCR1 250616Z 13009KT 18/17 A2996 RMK A01 T01840171  RH  093%=      5-min Rain = 0
KCR1 250617Z 13010KT 18/17 A2996 RMK A01 T01840171  RH  092%=      5-min Rain = 0
KCR1 250618Z 12009KT 18/17 A2996 RMK A01 T01830171  RH  092%=      5-min Rain = 0
KCR1 250619Z 12008KT 18/17 A2996 RMK A01 T01830171  RH  092%=      5-min Rain = 0
KCR1 250620Z 13009KT 18/17 A2996 RMK A01 T01830171  RH  092%=      5-min Rain = 0
KCR1 250621Z 13009KT 18/17 A2996 RMK A01 T01830171  RH  092%=      5-min Rain = 0
KCR1 250622Z 13009KT 18/17 A2996 RMK A01 T01840171  RH  092%=      5-min Rain = 0
KCR1 250623Z 14009KT 18/17 A2996 RMK A01 T01830171  RH  093%=      5-min Rain = 0
KCR1 250624Z 13009KT 18/17 A2996 RMK A01 T01830171  RH  093%=      5-min Rain = 0
KCR1 250625Z 14009KT 18/17 A2996 RMK A01 T01830171  RH  093%=      5-min Rain = 0
KCR1 250626Z 13009KT 18/17 A2996 RMK A01 T01830171  RH  093%=      5-min Rain = 0
KCR1 250627Z 13009KT 18/17 A2996 RMK A01 T01830171  RH  093%=      5-min Rain = 0
KCR1 250628Z 12011KT 18/17 A2996 RMK A01 T01830171  RH  093%=      5-min Rain = 0
KCR1 250629Z 12009KT 18/17 A2996 RMK A01 T01830171  RH  093%=      5-min Rain = 0
KCR1 250630Z 13010KT 18/17 A2995 RMK A01 T01830171  RH  093%=      5-min Rain = 0
KCR1 250631Z 12009KT 18/17 A2995 RMK A01 T01830171  RH  093%=      5-min Rain = 0
KCR1 250632Z 13009KT 18/17 A2995 RMK A01 T01830171  RH  093%=      5-min Rain = 0
KCR1 250633Z 13011KT 18/17 A2995 RMK A01 T01830171  RH  093%=      5-min Rain = 0
KCR1 250634Z 13009KT 18/17 A2995 RMK A01 T01830171  RH  093%=      5-min Rain = 0
KCR1 250635Z 13011KT 18/17 A2995 RMK A01 T01830171  RH  093%=      5-min Rain = 0
KCR1 250636Z 13010KT 18/17 A2996 RMK A01 T01840172  RH  092%=      5-min Rain = 0
KCR1 250637Z 14009KT 18/17 A2996 RMK A01 T01840172  RH  092%=      5-min Rain = 0
KCR1 250638Z 14008KT 18/17 A2996 RMK A01 T01840172  RH  093%=      5-min Rain = 0
KCR1 250639Z 14007KT 18/17 A2996 RMK A01 T01840172  RH  093%=      5-min Rain = 0
KCR1 250640Z 14008KT 18/17 A2996 RMK A01 T01840172  RH  093%=      5-min Rain = 0
KCR1 250641Z 15007KT 18/17 A2996 RMK A01 T01830172  RH  093%=      5-min Rain = 0
KCR1 250642Z 15009KT 18/17 A2996 RMK A01 T01830172  RH  093%=      5-min Rain = 0
KCR1 250643Z 15008KT 18/17 A2996 RMK A01 T01830172  RH  093%=      5-min Rain = 0
KCR1 250644Z 15008KT 18/17 A2996 RMK A01 T01830172  RH  094%=      5-min Rain = 0
KCR1 250645Z 15007KT 18/17 A2996 RMK A01 T01830172  RH  094%=      5-min Rain = 0
KCR1 250646Z 14009KT 18/17 A2996 RMK A01 T01830173  RH  094%=      5-min Rain = 0
KCR1 250647Z 13009KT 18/17 A2996 RMK A01 T01830173  RH  094%=      5-min Rain = 0
KCR1 250648Z 13008KT 18/17 A2996 RMK A01 T01830173  RH  094%=      5-min Rain = 0
KCR1 250649Z 13008KT 18/17 A2996 RMK A01 T01830173  RH  094%=      5-min Rain = 0
KCR1 250650Z 13008KT 18/17 A2996 RMK A01 T01830173  RH  094%=      5-min Rain = 0
KCR1 250651Z 13008KT 18/17 A2996 RMK A01 T01830173  RH  094%=      5-min Rain = 0
KCR1 250652Z 13008KT 18/17 A2996 RMK A01 T01830173  RH  094%=      5-min Rain = 0
KCR1 250653Z 14010KT 18/17 A2996 RMK A01 T01830174  RH  094%=      5-min Rain = 0
KCR1 250654Z 13008KT 18/17 A2996 RMK A01 T01830174  RH  094%=      5-min Rain = 0
KCR1 250655Z 13009KT 18/17 A2996 RMK A01 T01830173  RH  094%=      5-min Rain = 0
KCR1 250656Z 14009KT 18/17 A2996 RMK A01 T01830173  RH  094%=      5-min Rain = 0
KCR1 250657Z 13008KT 18/17 A2996 RMK A01 T01840174  RH  094%=      5-min Rain = 0
KCR1 250658Z 14007KT 18/17 A2996 RMK A01 T01830174  RH  094%=      5-min Rain = 0
KCR1 250659Z 13007KT 18/17 A2996 RMK A01 T01840174  RH  094%=      5-min Rain = 0
KCR1 250700Z 14006KT 18/17 A2996 RMK A01 T01830174  RH  094%=      5-min Rain = 0
KCR1 250701Z 14007KT 18/17 A2996 RMK A01 T01830174  RH  094%=      5-min Rain = 0
KCR1 250702Z 13006KT 18/17 A2996 RMK A01 T01840174  RH  094%=      5-min Rain = 0
KCR1 250703Z 14008KT 18/17 A2996 RMK A01 T01830174  RH  094%=      5-min Rain = 0
KCR1 250704Z 13007KT 18/17 A2996 RMK A01 T01830174  RH  094%=      5-min Rain = 0
KCR1 250705Z 14008KT 18/18 A2996 RMK A01 T01840175  RH  094%=      5-min Rain = 0
KCR1 250706Z 14007KT 18/18 A2996 RMK A01 T01840175  RH  094%=      5-min Rain = 0
KCR1 250707Z 13006KT 18/18 A2996 RMK A01 T01840175  RH  094%=      5-min Rain = 0
KCR1 250708Z 14007KT 18/18 A2996 RMK A01 T01840175  RH  094%=      5-min Rain = 0
KCR1 250709Z 14007KT 18/17 A2996 RMK A01 T01830174  RH  095%=      5-min Rain = 0
KCR1 250710Z 13006KT 18/18 A2996 RMK A01 T01830175  RH  095%=      5-min Rain = 0
KCR1 250711Z 14007KT 18/18 A2996 RMK A01 T01830175  RH  095%=      5-min Rain = 0
KCR1 250712Z 14008KT 18/18 A2996 RMK A01 T01830175  RH  095%=      5-min Rain = 0
KCR1 250713Z 13008KT 18/18 A2996 RMK A01 T01830175  RH  095%=      5-min Rain = 0
KCR1 250714Z 14007KT 18/18 A2996 RMK A01 T01840175  RH  095%=      5-min Rain = 0
KCR1 250715Z 14007KT 18/18 A2996 RMK A01 T01840175  RH  095%=      5-min Rain = 0
KCR1 250716Z 14008KT 18/18 A2996 RMK A01 T01840175  RH  095%=      5-min Rain = 0
KCR1 250717Z 13007KT 18/18 A2996 RMK A01 T01840175  RH  095%=      5-min Rain = 0
KCR1 250718Z 13006KT 18/18 A2995 RMK A01 T01840175  RH  095%=      5-min Rain = 0
KCR1 250719Z 13006KT 18/18 A2995 RMK A01 T01840176  RH  095%=      5-min Rain = 0
KCR1 250720Z 13009KT 18/18 A2995 RMK A01 T01830175  RH  095%=      5-min Rain = 0
KCR1 250721Z 13009KT 18/18 A2995 RMK A01 T01830175  RH  095%=      5-min Rain = 0
KCR1 250722Z 14008KT 18/18 A2995 RMK A01 T01840176  RH  095%=      5-min Rain = 0
KCR1 250723Z 14007KT 18/18 A2995 RMK A01 T01840176  RH  095%=      5-min Rain = 0
KCR1 250724Z 14006KT 18/18 A2995 RMK A01 T01840176  RH  095%=      5-min Rain = 0
KCR1 250725Z 13007KT 18/18 A2995 RMK A01 T01840176  RH  095%=      5-min Rain = 0
KCR1 250726Z 13008KT 18/18 A2995 RMK A01 T01840176  RH  095%=      5-min Rain = 0
KCR1 250727Z 14007KT 18/18 A2995 RMK A01 T01830176  RH  095%=      5-min Rain = 0
KCR1 250728Z 13007KT 18/18 A2995 RMK A01 T01830176  RH  095%=      5-min Rain = 0
KCR1 250729Z 13006KT 18/18 A2995 RMK A01 T01830176  RH  095%=      5-min Rain = 0
KCR1 250730Z 13007KT 18/18 A2995 RMK A01 T01830176  RH  095%=      5-min Rain = 0
KCR1 250731Z 13007KT 18/18 A2995 RMK A01 T01830176  RH  095%=      5-min Rain = 0
KCR1 250732Z 13008KT 18/18 A2995 RMK A01 T01830176  RH  096%=      5-min Rain = 0
KCR1 250733Z 13007KT 18/18 A2995 RMK A01 T01840176  RH  096%=      5-min Rain = 0
KCR1 250734Z 13008KT 18/18 A2995 RMK A01 T01840177  RH  096%=      5-min Rain = 0
KCR1 250735Z 13007KT 18/18 A2995 RMK A01 T01840177  RH  095%=      5-min Rain = 0
KCR1 250736Z 13008KT 18/18 A2995 RMK A01 T01840177  RH  095%=      5-min Rain = 0
KCR1 250737Z 13008KT 18/18 A2995 RMK A01 T01840177  RH  095%=      5-min Rain = 0
KCR1 250738Z 13008KT 18/18 A2995 RMK A01 T01840177  RH  096%=      5-min Rain = 0
KCR1 250739Z 13007KT 19/18 A2995 RMK A01 T01850177  RH  096%=      5-min Rain = 0
KCR1 250740Z 13006KT 18/18 A2995 RMK A01 T01840177  RH  096%=      5-min Rain = 0
KCR1 250741Z 13007KT 18/18 A2995 RMK A01 T01840177  RH  096%=      5-min Rain = 0
KCR1 250742Z 13008KT 18/18 A2995 RMK A01 T01840177  RH  096%=      5-min Rain = 0
KCR1 250743Z 14008KT 18/18 A2995 RMK A01 T01840178  RH  096%=      5-min Rain = 0
KCR1 250744Z 13007KT 18/18 A2995 RMK A01 T01840177  RH  096%=      5-min Rain = 0
KCR1 250745Z 14007KT 18/18 A2995 RMK A01 T01840178  RH  096%=      5-min Rain = 0
KCR1 250746Z 13007KT 18/18 A2995 RMK A01 T01840178  RH  096%=      5-min Rain = 0
KCR1 250747Z 14007KT 18/18 A2995 RMK A01 T01840178  RH  096%=      5-min Rain = 0
KCR1 250748Z 13006KT 18/18 A2995 RMK A01 T01840178  RH  096%=      5-min Rain = 0
KCR1 250749Z 13006KT 18/18 A2995 RMK A01 T01840178  RH  096%=      5-min Rain = 0
KCR1 250750Z 12008KT 19/18 A2995 RMK A01 T01850179  RH  096%=      5-min Rain = 0
KCR1 250751Z 13009KT 18/18 A2995 RMK A01 T01840179  RH  096%=      5-min Rain = 0
KCR1 250752Z 12009KT 19/18 A2995 RMK A01 T01850179  RH  096%=      5-min Rain = 0
KCR1 250753Z 12009KT 19/18 A2995 RMK A01 T01850179  RH  096%=      5-min Rain = 0
KCR1 250754Z 12008KT 19/18 A2994 RMK A01 T01850179  RH  096%=      5-min Rain = 0
KCR1 250755Z 12007KT 19/18 A2994 RMK A01 T01850179  RH  096%=      5-min Rain = 0
KCR1 250756Z 12009KT 19/18 A2994 RMK A01 T01850180  RH  096%=      5-min Rain = 0
KCR1 250757Z 12009KT 19/18 A2994 RMK A01 T01850180  RH  096%=      5-min Rain = 0
KCR1 250758Z 12008KT 19/18 A2994 RMK A01 T01850179  RH  096%=      5-min Rain = 0
KCR1 250759Z 12008KT 19/18 A2994 RMK A01 T01850180  RH  096%=      5-min Rain = 0
KCR1 250800Z 12006KT 19/18 A2994 RMK A01 T01850180  RH  096%=      5-min Rain = 0
KCR1 250801Z 12007KT 19/18 A2994 RMK A01 T01850179  RH  096%=      5-min Rain = 0
KCR1 250802Z 13008KT 19/18 A2994 RMK A01 T01850179  RH  096%=      5-min Rain = 0
KCR1 250803Z 12008KT 19/18 A2994 RMK A01 T01850179  RH  096%=      5-min Rain = 0
KCR1 250804Z 13006KT 19/18 A2994 RMK A01 T01850180  RH  096%=      5-min Rain = 0
KCR1 250805Z 12008KT 19/18 A2994 RMK A01 T01850180  RH  096%=      5-min Rain = 0
KCR1 250806Z 12007KT 19/18 A2994 RMK A01 T01850180  RH  097%=      5-min Rain = 0
KCR1 250807Z 12007KT 19/18 A2994 RMK A01 T01850180  RH  097%=      5-min Rain = 0
KCR1 250808Z 12007KT 19/18 A2994 RMK A01 T01850180  RH  097%=      5-min Rain = 0
KCR1 250809Z 11008KT 19/18 A2993 RMK A01 T01850180  RH  097%=      5-min Rain = 0
KCR1 250810Z 12007KT 19/18 A2993 RMK A01 T01850180  RH  097%=      5-min Rain = 0
KCR1 250811Z 11008KT 19/18 A2993 RMK A01 T01850180  RH  097%=      5-min Rain = 0
KCR1 250812Z 12008KT 19/18 A2993 RMK A01 T01850180  RH  097%=      5-min Rain = 0
KCR1 250813Z 12007KT 19/18 A2993 RMK A01 T01860180  RH  097%=      5-min Rain = 0
KCR1 250814Z 12008KT 19/18 A2994 RMK A01 T01860181  RH  097%=      5-min Rain = 0
KCR1 250815Z 12007KT 19/18 A2994 RMK A01 T01860181  RH  097%=      5-min Rain = 0
KCR1 250816Z 12005KT 19/18 A2994 RMK A01 T01860181  RH  097%=      5-min Rain = 0
KCR1 250817Z 12006KT 19/18 A2994 RMK A01 T01860181  RH  097%=      5-min Rain = 0
KCR1 250818Z 11006KT 19/18 A2994 RMK A01 T01860181  RH  097%=      5-min Rain = 0
KCR1 250819Z 11007KT 19/18 A2994 RMK A01 T01860181  RH  097%=      5-min Rain = 0
KCR1 250820Z 11006KT 19/18 A2994 RMK A01 T01860181  RH  097%=      5-min Rain = 0
KCR1 250821Z 11007KT 19/18 A2994 RMK A01 T01860181  RH  097%=      5-min Rain = 0
KCR1 250822Z 11006KT 19/18 A2994 RMK A01 T01860181  RH  097%=      5-min Rain = 0
KCR1 250823Z 11007KT 19/18 A2994 RMK A01 T01860181  RH  097%=      5-min Rain = 0
KCR1 250824Z 10007KT 19/18 A2994 RMK A01 T01860181  RH  097%=      5-min Rain = 0
KCR1 250825Z 11006KT 19/18 A2994 RMK A01 T01860181  RH  097%=      5-min Rain = 0
KCR1 250826Z 11006KT 19/18 A2994 RMK A01 T01860181  RH  097%=      5-min Rain = 0
KCR1 250827Z 11006KT 19/18 A2994 RMK A01 T01860181  RH  097%=      5-min Rain = 0
KCR1 250828Z 11006KT 19/18 A2994 RMK A01 T01860181  RH  097%=      5-min Rain = 0
KCR1 250829Z 11007KT 19/18 A2994 RMK A01 T01860181  RH  097%=      5-min Rain = 0
KCR1 250830Z 10006KT 19/18 A2994 RMK A01 T01860181  RH  097%=      5-min Rain = 0
KCR1 250831Z 10006KT 19/18 A2994 RMK A01 T01860181  RH  097%=      5-min Rain = 0
KCR1 250832Z 11005KT 19/18 A2994 RMK A01 T01860181  RH  097%=      5-min Rain = 0
KCR1 250833Z 11005KT 19/18 A2994 RMK A01 T01860181  RH  097%=      5-min Rain = 0
KCR1 250834Z 11006KT 19/18 A2994 RMK A01 T01860181  RH  097%=      5-min Rain = 0
KCR1 250835Z 10006KT 19/18 A2994 RMK A01 T01860181  RH  097%=      5-min Rain = 0
KCR1 250836Z 10005KT 19/18 A2994 RMK A01 T01860181  RH  097%=      5-min Rain = 0
KCR1 250837Z 11006KT 19/18 A2994 RMK A01 T01860181  RH  097%=      5-min Rain = 0
KCR1 250838Z 11006KT 19/18 A2994 RMK A01 T01860181  RH  097%=      5-min Rain = 0
KCR1 250839Z 11006KT 19/18 A2994 RMK A01 T01860181  RH  097%=      5-min Rain = 0
KCR1 250840Z 11005KT 19/18 A2994 RMK A01 T01860181  RH  097%=      5-min Rain = 0
KCR1 250841Z 11005KT 19/18 A2994 RMK A01 T01860181  RH  097%=      5-min Rain = 0
KCR1 250842Z 11006KT 19/18 A2994 RMK A01 T01860181  RH  097%=      5-min Rain = 0
KCR1 250843Z 11006KT 19/18 A2994 RMK A01 T01860181  RH  097%=      5-min Rain = 0
KCR1 250844Z 11006KT 19/18 A2994 RMK A01 T01860181  RH  097%=      5-min Rain = 0
KCR1 250845Z 11006KT 19/18 A2994 RMK A01 T01860181  RH  097%=      5-min Rain = 0
KCR1 250846Z 11005KT 19/18 A2994 RMK A01 T01860182  RH  097%=      5-min Rain = 0
KCR1 250847Z 12005KT 19/18 A2994 RMK A01 T01860181  RH  097%=      5-min Rain = 0
KCR1 250848Z 11006KT 19/18 A2994 RMK A01 T01860182  RH  097%=      5-min Rain = 0
KCR1 250849Z 11005KT 19/18 A2994 RMK A01 T01860182  RH  097%=      5-min Rain = 0
KCR1 250850Z 11006KT 19/18 A2994 RMK A01 T01860182  RH  097%=      5-min Rain = 0
KCR1 250851Z 11006KT 19/18 A2994 RMK A01 T01860182  RH  097%=      5-min Rain = 0
KCR1 250852Z 11005KT 19/18 A2994 RMK A01 T01860182  RH  097%=      5-min Rain = 0
KCR1 250853Z 11005KT 19/18 A2994 RMK A01 T01860182  RH  097%=      5-min Rain = 0
KCR1 250854Z 11005KT 19/18 A2994 RMK A01 T01860182  RH  097%=      5-min Rain = 0
KCR1 250855Z 11005KT 19/18 A2994 RMK A01 T01860182  RH  098%=      5-min Rain = 0
KCR1 250856Z 11004KT 19/18 A2994 RMK A01 T01860182  RH  098%=      5-min Rain = 0
KCR1 250857Z 11005KT 19/18 A2994 RMK A01 T01860182  RH  098%=      5-min Rain = 0
KCR1 250858Z 10005KT 19/18 A2994 RMK A01 T01860182  RH  098%=      5-min Rain = 0
KCR1 250859Z 11005KT 19/18 A2994 RMK A01 T01860183  RH  098%=      5-min Rain = 0
KCR1 250900Z 11005KT 19/18 A2994 RMK A01 T01860182  RH  098%=      5-min Rain = 0
KCR1 250901Z 11004KT 19/18 A2994 RMK A01 T01860182  RH  098%=      5-min Rain = 0
KCR1 250902Z 10005KT 19/18 A2994 RMK A01 T01870183  RH  098%=      5-min Rain = 0
KCR1 250903Z 11005KT 19/18 A2994 RMK A01 T01860182  RH  098%=      5-min Rain = 0
KCR1 250904Z 11005KT 19/18 A2994 RMK A01 T01860183  RH  098%=      5-min Rain = 0
KCR1 250905Z 11005KT 19/18 A2994 RMK A01 T01860182  RH  098%=      5-min Rain = 0
KCR1 250906Z 10005KT 19/18 A2994 RMK A01 T01860183  RH  098%=      5-min Rain = 0
KCR1 250907Z 10006KT 19/18 A2994 RMK A01 T01860182  RH  098%=      5-min Rain = 0
KCR1 250908Z 10005KT 19/18 A2994 RMK A01 T01860183  RH  098%=      5-min Rain = 0
KCR1 250909Z 10006KT 19/18 A2994 RMK A01 T01860183  RH  098%=      5-min Rain = 0
KCR1 250910Z 10005KT 19/18 A2993 RMK A01 T01870183  RH  098%=      5-min Rain = 0
KCR1 250911Z 10006KT 19/18 A2993 RMK A01 T01860183  RH  098%=      5-min Rain = 0
KCR1 250912Z 11006KT 19/18 A2994 RMK A01 T01860183  RH  098%=      5-min Rain = 0
KCR1 250913Z 10005KT 19/18 A2994 RMK A01 T01860183  RH  098%=      5-min Rain = 0
KCR1 250914Z 11006KT 19/18 A2994 RMK A01 T01860183  RH  098%=      5-min Rain = 0
KCR1 250915Z 10005KT 19/18 A2994 RMK A01 T01860183  RH  098%=      5-min Rain = 0
KCR1 250916Z 10005KT 19/18 A2994 RMK A01 T01860182  RH  098%=      5-min Rain = 0
KCR1 250917Z 11004KT 19/18 A2994 RMK A01 T01860183  RH  098%=      5-min Rain = 0
KCR1 250918Z 11005KT 19/18 A2994 RMK A01 T01860182  RH  098%=      5-min Rain = 0
KCR1 250919Z 11005KT 19/18 A2994 RMK A01 T01860183  RH  098%=      5-min Rain = 0
KCR1 250920Z 11005KT 19/18 A2994 RMK A01 T01860183  RH  098%=      5-min Rain = 0
KCR1 250921Z 11005KT 19/18 A2994 RMK A01 T01860183  RH  098%=      5-min Rain = 0
KCR1 250922Z 11005KT 19/18 A2994 RMK A01 T01860183  RH  098%=      5-min Rain = 0
KCR1 250923Z 12006KT 19/18 A2994 RMK A01 T01860183  RH  098%=      5-min Rain = 0
KCR1 250924Z 11005KT 19/18 A2994 RMK A01 T01860183  RH  098%=      5-min Rain = 0
KCR1 250925Z 12006KT 19/18 A2994 RMK A01 T01860183  RH  098%=      5-min Rain = 0
KCR1 250926Z 12007KT 19/18 A2994 RMK A01 T01860183  RH  098%=      5-min Rain = 0
KCR1 250927Z 12007KT 19/18 A2994 RMK A01 T01860183  RH  098%=      5-min Rain = 0
KCR1 250928Z 12006KT 19/18 A2994 RMK A01 T01860183  RH  098%=      5-min Rain = 0
KCR1 250929Z 12007KT 19/18 A2994 RMK A01 T01860183  RH  098%=      5-min Rain = 0
KCR1 250930Z 12007KT 19/18 A2994 RMK A01 T01860183  RH  098%=      5-min Rain = 0
KCR1 250931Z 12006KT 19/18 A2994 RMK A01 T01860183  RH  098%=      5-min Rain = 0
KCR1 250932Z 12006KT 19/18 A2994 RMK A01 T01860183  RH  098%=      5-min Rain = 0
KCR1 250933Z 12007KT 19/18 A2994 RMK A01 T01860183  RH  098%=      5-min Rain = 0
KCR1 250934Z 12006KT 19/18 A2994 RMK A01 T01860183  RH  098%=      5-min Rain = 0
KCR1 250935Z 12005KT 19/18 A2994 RMK A01 T01860183  RH  098%=      5-min Rain = 0
KCR1 250936Z 12006KT 19/18 A2994 RMK A01 T01860183  RH  098%=      5-min Rain = 0
KCR1 250937Z 12006KT 19/18 A2994 RMK A01 T01860183  RH  098%=      5-min Rain = 0
KCR1 250938Z 12005KT 19/18 A2994 RMK A01 T01860183  RH  098%=      5-min Rain = 0
KCR1 250939Z 12006KT 19/18 A2994 RMK A01 T01860183  RH  098%=      5-min Rain = 0
KCR1 250940Z 12006KT 19/18 A2994 RMK A01 T01860182  RH  098%=      5-min Rain = 0
KCR1 250941Z 12005KT 19/18 A2994 RMK A01 T01860183  RH  098%=      5-min Rain = 0
KCR1 250942Z 12005KT 19/18 A2994 RMK A01 T01860183  RH  098%=      5-min Rain = 0
KCR1 250943Z 12005KT 19/18 A2994 RMK A01 T01860183  RH  098%=      5-min Rain = 0
KCR1 250944Z 12005KT 19/18 A2994 RMK A01 T01860183  RH  098%=      5-min Rain = 0
KCR1 250945Z 12005KT 19/18 A2994 RMK A01 T01860183  RH  098%=      5-min Rain = 0
KCR1 250946Z 12005KT 19/18 A2994 RMK A01 T01860183  RH  098%=      5-min Rain = 0
KCR1 250947Z 12004KT 19/18 A2994 RMK A01 T01860183  RH  098%=      5-min Rain = 0
KCR1 250948Z 12005KT 19/18 A2994 RMK A01 T01860183  RH  098%=      5-min Rain = 0
KCR1 250949Z 12005KT 19/18 A2994 RMK A01 T01860183  RH  098%=      5-min Rain = 0
KCR1 250950Z 12005KT 19/18 A2994 RMK A01 T01860183  RH  098%=      5-min Rain = 0
KCR1 250951Z 12005KT 19/18 A2994 RMK A01 T01860183  RH  098%=      5-min Rain = 0
KCR1 250952Z 12005KT 19/18 A2994 RMK A01 T01850182  RH  098%=      5-min Rain = 0
KCR1 250953Z 12005KT 19/18 A2994 RMK A01 T01850182  RH  098%=      5-min Rain = 0
KCR1 250954Z 12005KT 19/18 A2994 RMK A01 T01850183  RH  098%=      5-min Rain = 0
KCR1 250955Z 12005KT 19/18 A2994 RMK A01 T01850183  RH  098%=      5-min Rain = 0
KCR1 250956Z 12005KT 19/18 A2994 RMK A01 T01850183  RH  098%=      5-min Rain = 0
KCR1 250957Z 12005KT 19/18 A2994 RMK A01 T01850183  RH  098%=      5-min Rain = 0
KCR1 250958Z 12005KT 19/18 A2994 RMK A01 T01850182  RH  098%=      5-min Rain = 0
KCR1 250959Z 12005KT 19/18 A2994 RMK A01 T01850183  RH  098%=      5-min Rain = 0
KCR1 251000Z 13005KT 19/18 A2994 RMK A01 T01850182  RH  098%=      5-min Rain = 0
KCR1 251001Z 12005KT 19/18 A2994 RMK A01 T01850183  RH  098%=      5-min Rain = 0
KCR1 251002Z 12006KT 19/18 A2994 RMK A01 T01850183  RH  098%=      5-min Rain = 0
KCR1 251003Z 13005KT 19/18 A2994 RMK A01 T01850183  RH  098%=      5-min Rain = 0
KCR1 251004Z 13006KT 19/18 A2994 RMK A01 T01850183  RH  098%=      5-min Rain = 0
KCR1 251005Z 13006KT 19/18 A2994 RMK A01 T01850182  RH  098%=      5-min Rain = 0
KCR1 251006Z 13006KT 19/18 A2994 RMK A01 T01850182  RH  098%=      5-min Rain = 0
KCR1 251007Z 13006KT 19/18 A2994 RMK A01 T01850182  RH  098%=      5-min Rain = 0
KCR1 251008Z 13006KT 19/18 A2994 RMK A01 T01850182  RH  098%=      5-min Rain = 0
KCR1 251009Z 13005KT 19/18 A2994 RMK A01 T01850183  RH  098%=      5-min Rain = 0
KCR1 251010Z 13005KT 19/18 A2994 RMK A01 T01850182  RH  099%=      5-min Rain = 0
KCR1 251011Z 13005KT 19/18 A2994 RMK A01 T01850183  RH  099%=      5-min Rain = 0
KCR1 251012Z 14005KT 19/18 A2994 RMK A01 T01850183  RH  099%=      5-min Rain = 0
KCR1 251013Z 14005KT 19/18 A2994 RMK A01 T01860183  RH  099%=      5-min Rain = 0
KCR1 251014Z 13005KT 19/18 A2994 RMK A01 T01860184  RH  099%=      5-min Rain = 0
KCR1 251015Z 13005KT 19/18 A2994 RMK A01 T01860184  RH  099%=      5-min Rain = 0
KCR1 251016Z 13005KT 19/18 A2994 RMK A01 T01860184  RH  099%=      5-min Rain = 0
KCR1 251017Z 13006KT 19/18 A2994 RMK A01 T01860184  RH  099%=      5-min Rain = 0
KCR1 251018Z 13005KT 19/18 A2994 RMK A01 T01860184  RH  099%=      5-min Rain = 0
KCR1 251019Z 13005KT 19/18 A2994 RMK A01 T01860184  RH  099%=      5-min Rain = 0
KCR1 251020Z 14005KT 19/18 A2994 RMK A01 T01860184  RH  099%=      5-min Rain = 0
KCR1 251021Z 14005KT 19/18 A2994 RMK A01 T01860184  RH  099%=      5-min Rain = 0
KCR1 251022Z 13005KT 19/18 A2994 RMK A01 T01860184  RH  099%=      5-min Rain = 0
KCR1 251023Z 14005KT 19/18 A2994 RMK A01 T01860184  RH  099%=      5-min Rain = 0
KCR1 251024Z 13005KT 19/18 A2994 RMK A01 T01860184  RH  099%=      5-min Rain = 0
KCR1 251025Z 13005KT 19/18 A2994 RMK A01 T01860184  RH  099%=      5-min Rain = 0
KCR1 251026Z 13005KT 19/18 A2994 RMK A01 T01860184  RH  099%=      5-min Rain = 0
KCR1 251027Z 13005KT 19/18 A2994 RMK A01 T01860184  RH  099%=      5-min Rain = 0
KCR1 251028Z 13005KT 19/19 A2994 RMK A01 T01870185  RH  099%=      5-min Rain = 0
KCR1 251029Z 13005KT 19/18 A2994 RMK A01 T01870184  RH  099%=      5-min Rain = 0
KCR1 251030Z 13005KT 19/19 A2994 RMK A01 T01870185  RH  099%=      5-min Rain = 0
KCR1 251031Z 13004KT 19/19 A2994 RMK A01 T01870185  RH  099%=      5-min Rain = 0
KCR1 251032Z 13005KT 19/19 A2994 RMK A01 T01870185  RH  099%=      5-min Rain = 0
KCR1 251033Z 13006KT 19/19 A2994 RMK A01 T01870185  RH  099%=      5-min Rain = 0
KCR1 251034Z 13005KT 19/19 A2994 RMK A01 T01870185  RH  099%=      5-min Rain = 0
KCR1 251035Z 13005KT 19/19 A2994 RMK A01 T01880185  RH  099%=      5-min Rain = 0
KCR1 251036Z 13005KT 19/19 A2994 RMK A01 T01880186  RH  099%=      5-min Rain = 0
KCR1 251037Z 13005KT 19/19 A2994 RMK A01 T01880186  RH  099%=      5-min Rain = 0
KCR1 251038Z 13006KT 19/19 A2994 RMK A01 T01880186  RH  099%=      5-min Rain = 0
KCR1 251039Z 14005KT 19/19 A2994 RMK A01 T01880186  RH  099%=      5-min Rain = 0
KCR1 251040Z 13005KT 19/19 A2994 RMK A01 T01890186  RH  099%=      5-min Rain = 0
KCR1 251041Z 13005KT 19/19 A2994 RMK A01 T01890187  RH  099%=      5-min Rain = 0
KCR1 251042Z 13005KT 19/19 A2994 RMK A01 T01890187  RH  099%=      5-min Rain = 0
KCR1 251043Z 14005KT 19/19 A2994 RMK A01 T01890187  RH  099%=      5-min Rain = 0
KCR1 251044Z 14005KT 19/19 A2994 RMK A01 T01900187  RH  099%=      5-min Rain = 0
KCR1 251045Z 14005KT 19/19 A2994 RMK A01 T01890187  RH  098%=      5-min Rain = 0
KCR1 251046Z 14005KT 19/19 A2994 RMK A01 T01890187  RH  098%=      5-min Rain = 0
KCR1 251047Z 14005KT 19/19 A2994 RMK A01 T01900187  RH  098%=      5-min Rain = 0
KCR1 251048Z 14005KT 19/19 A2994 RMK A01 T01900187  RH  098%=      5-min Rain = 0
KCR1 251049Z 14006KT 19/19 A2994 RMK A01 T01900188  RH  098%=      5-min Rain = 0
KCR1 251050Z 14005KT 19/19 A2994 RMK A01 T01900188  RH  098%=      5-min Rain = 0
KCR1 251051Z 14005KT 19/19 A2994 RMK A01 T01900188  RH  098%=      5-min Rain = 0
KCR1 251052Z 14006KT 19/19 A2994 RMK A01 T01910188  RH  098%=      5-min Rain = 0
KCR1 251053Z 14006KT 19/19 A2994 RMK A01 T01910188  RH  098%=      5-min Rain = 0
KCR1 251054Z 14006KT 19/19 A2994 RMK A01 T01910188  RH  098%=      5-min Rain = 0
KCR1 251055Z 14006KT 19/19 A2994 RMK A01 T01910188  RH  098%=      5-min Rain = 0
KCR1 251056Z 14006KT 19/19 A2994 RMK A01 T01910188  RH  098%=      5-min Rain = 0
KCR1 251057Z 14005KT 19/19 A2994 RMK A01 T01910188  RH  098%=      5-min Rain = 0
KCR1 251058Z 14006KT 19/19 A2994 RMK A01 T01910188  RH  098%=      5-min Rain = 0
KCR1 251059Z 14006KT 19/19 A2994 RMK A01 T01910188  RH  098%=      5-min Rain = 0
KCR1 251100Z 15005KT 19/19 A2994 RMK A01 T01910188  RH  098%=      5-min Rain = 0
KCR1 251101Z 14005KT 19/19 A2994 RMK A01 T01910188  RH  098%=      5-min Rain = 0
KCR1 251102Z 14006KT 19/19 A2994 RMK A01 T01910188  RH  098%=      5-min Rain = 0
KCR1 251103Z 15006KT 19/19 A2994 RMK A01 T01910188  RH  098%=      5-min Rain = 0
KCR1 251104Z 15005KT 19/19 A2994 RMK A01 T01910188  RH  098%=      5-min Rain = 0
KCR1 251105Z 15006KT 19/19 A2994 RMK A01 T01910188  RH  098%=      5-min Rain = 0
KCR1 251106Z 15005KT 19/19 A2994 RMK A01 T01910188  RH  098%=      5-min Rain = 0
KCR1 251107Z 14005KT 19/19 A2995 RMK A01 T01910187  RH  098%=      5-min Rain = 0
KCR1 251108Z 15005KT 19/19 A2995 RMK A01 T01910187  RH  098%=      5-min Rain = 0
KCR1 251109Z 15005KT 19/19 A2995 RMK A01 T01910187  RH  098%=      5-min Rain = 0
KCR1 251110Z 15005KT 19/19 A2995 RMK A01 T01910187  RH  098%=      5-min Rain = 0
KCR1 251111Z 14004KT 19/19 A2995 RMK A01 T01910187  RH  098%=      5-min Rain = 0
KCR1 251112Z 14005KT 19/19 A2995 RMK A01 T01910187  RH  098%=      5-min Rain = 0
KCR1 251113Z 15005KT 19/19 A2995 RMK A01 T01910187  RH  098%=      5-min Rain = 0
KCR1 251114Z 14004KT 19/19 A2995 RMK A01 T01900187  RH  098%=      5-min Rain = 0
KCR1 251115Z 15004KT 19/19 A2995 RMK A01 T01900187  RH  098%=      5-min Rain = 0
KCR1 251116Z 15004KT 19/19 A2995 RMK A01 T01900187  RH  098%=      5-min Rain = 0
KCR1 251117Z 14004KT 19/19 A2995 RMK A01 T01900187  RH  098%=      5-min Rain = 0
KCR1 251118Z 14004KT 19/19 A2995 RMK A01 T01900186  RH  098%=      5-min Rain = 0
KCR1 251119Z 15004KT 19/19 A2995 RMK A01 T01900187  RH  098%=      5-min Rain = 0
KCR1 251120Z 14004KT 19/19 A2995 RMK A01 T01900187  RH  098%=      5-min Rain = 0
KCR1 251121Z 14004KT 19/19 A2995 RMK A01 T01900186  RH  098%=      5-min Rain = 0
KCR1 251122Z 14004KT 19/19 A2995 RMK A01 T01900186  RH  098%=      5-min Rain = 0
KCR1 251123Z 14004KT 19/19 A2995 RMK A01 T01900187  RH  098%=      5-min Rain = 0
KCR1 251124Z 14004KT 19/19 A2995 RMK A01 T01900186  RH  098%=      5-min Rain = 0
KCR1 251125Z 14004KT 19/19 A2995 RMK A01 T01900186  RH  098%=      5-min Rain = 0
KCR1 251126Z 14004KT 19/19 A2995 RMK A01 T01900186  RH  098%=      5-min Rain = 0
KCR1 251127Z 14004KT 19/19 A2995 RMK A01 T01890186  RH  098%=      5-min Rain = 0
KCR1 251128Z 14004KT 19/19 A2995 RMK A01 T01890186  RH  098%=      5-min Rain = 0
KCR1 251129Z 14004KT 19/19 A2995 RMK A01 T01890186  RH  098%=      5-min Rain = 0
KCR1 251130Z 13004KT 19/19 A2995 RMK A01 T01890186  RH  098%=      5-min Rain = 0
KCR1 251131Z 13004KT 19/19 A2995 RMK A01 T01890186  RH  098%=      5-min Rain = 0
KCR1 251132Z 13004KT 19/19 A2995 RMK A01 T01890186  RH  098%=      5-min Rain = 0
KCR1 251133Z 13004KT 19/19 A2995 RMK A01 T01900186  RH  098%=      5-min Rain = 0
KCR1 251134Z 13005KT 19/19 A2995 RMK A01 T01890186  RH  098%=      5-min Rain = 0
KCR1 251135Z 13004KT 19/19 A2995 RMK A01 T01900186  RH  098%=      5-min Rain = 0
KCR1 251136Z 13004KT 19/19 A2996 RMK A01 T01890186  RH  098%=      5-min Rain = 0
KCR1 251137Z 13004KT 19/19 A2996 RMK A01 T01900187  RH  098%=      5-min Rain = 0
KCR1 251138Z 12004KT 19/19 A2996 RMK A01 T01890186  RH  098%=      5-min Rain = 0
KCR1 251139Z 13004KT 19/19 A2996 RMK A01 T01890186  RH  098%=      5-min Rain = 0
KCR1 251140Z 13004KT 19/19 A2996 RMK A01 T01890186  RH  098%=      5-min Rain = 0
KCR1 251141Z 13004KT 19/19 A2996 RMK A01 T01890186  RH  098%=      5-min Rain = 0
KCR1 251142Z 13004KT 19/19 A2996 RMK A01 T01890186  RH  098%=      5-min Rain = 0
KCR1 251143Z 13004KT 19/19 A2996 RMK A01 T01890186  RH  098%=      5-min Rain = 0
KCR1 251144Z 12004KT 19/19 A2996 RMK A01 T01890186  RH  098%=      5-min Rain = 0
KCR1 251145Z 13004KT 19/19 A2996 RMK A01 T01890186  RH  098%=      5-min Rain = 0
KCR1 251146Z 13003KT 19/19 A2996 RMK A01 T01890186  RH  098%=      5-min Rain = 0
KCR1 251147Z 13004KT 19/19 A2996 RMK A01 T01890186  RH  098%=      5-min Rain = 0
KCR1 251148Z 13004KT 19/19 A2996 RMK A01 T01890186  RH  098%=      5-min Rain = 0
KCR1 251149Z 13004KT 19/19 A2996 RMK A01 T01890186  RH  098%=      5-min Rain = 0
KCR1 251150Z 14004KT 19/19 A2996 RMK A01 T01890186  RH  098%=      5-min Rain = 0
KCR1 251151Z 13004KT 19/19 A2996 RMK A01 T01890186  RH  098%=      5-min Rain = 0
KCR1 251152Z 14004KT 19/19 A2996 RMK A01 T01900187  RH  098%=      5-min Rain = 0
KCR1 251153Z 14004KT 19/19 A2996 RMK A01 T01900187  RH  098%=      5-min Rain = 0
KCR1 251154Z 13004KT 19/19 A2996 RMK A01 T01900187  RH  098%=      5-min Rain = 0
KCR1 251155Z 14004KT 19/19 A2996 RMK A01 T01900187  RH  098%=      5-min Rain = 0
KCR1 251156Z 14005KT 19/19 A2996 RMK A01 T01900187  RH  098%=      5-min Rain = 0
KCR1 251157Z 14004KT 19/19 A2996 RMK A01 T01900187  RH  098%=      5-min Rain = 0
KCR1 251158Z 13004KT 19/19 A2996 RMK A01 T01900188  RH  098%=      5-min Rain = 0
KCR1 251159Z 13004KT 19/19 A2996 RMK A01 T01900187  RH  098%=      5-min Rain = 0
KCR1 251200Z 13004KT 19/19 A2996 RMK A01 T01910188  RH  098%=      5-min Rain = 0
KCR1 251201Z 13004KT 19/19 A2996 RMK A01 T01910188  RH  098%=      5-min Rain = 0
KCR1 251202Z 13004KT 19/19 A2996 RMK A01 T01910188  RH  098%=      5-min Rain = 0
KCR1 251203Z 13004KT 19/19 A2996 RMK A01 T01910188  RH  098%=      5-min Rain = 0
KCR1 251204Z 13004KT 19/19 A2996 RMK A01 T01910188  RH  098%=      5-min Rain = 0
KCR1 251205Z 13004KT 19/19 A2996 RMK A01 T01910188  RH  098%=      5-min Rain = 0
KCR1 251206Z 12004KT 19/19 A2996 RMK A01 T01910188  RH  098%=      5-min Rain = 0
KCR1 251207Z 12004KT 19/19 A2997 RMK A01 T01910188  RH  098%=      5-min Rain = 0
KCR1 251208Z 12004KT 19/19 A2997 RMK A01 T01910188  RH  098%=      5-min Rain = 0
KCR1 251209Z 12004KT 19/19 A2997 RMK A01 T01920188  RH  098%=      5-min Rain = 0
KCR1 251210Z 12004KT 19/19 A2997 RMK A01 T01920189  RH  098%=      5-min Rain = 0
KCR1 251211Z 12004KT 19/19 A2997 RMK A01 T01920188  RH  098%=      5-min Rain = 0
KCR1 251212Z 12004KT 19/19 A2997 RMK A01 T01920189  RH  098%=      5-min Rain = 0
KCR1 251213Z 12004KT 19/19 A2997 RMK A01 T01920189  RH  098%=      5-min Rain = 0
KCR1 251214Z 12004KT 19/19 A2997 RMK A01 T01920189  RH  098%=      5-min Rain = 0
KCR1 251215Z 12004KT 19/19 A2997 RMK A01 T01920189  RH  098%=      5-min Rain = 0
KCR1 251216Z 12004KT 19/19 A2997 RMK A01 T01930189  RH  098%=      5-min Rain = 0
KCR1 251217Z 12004KT 19/19 A2997 RMK A01 T01930189  RH  098%=      5-min Rain = 0
KCR1 251218Z 12004KT 19/19 A2997 RMK A01 T01930189  RH  098%=      5-min Rain = 0
KCR1 251219Z 12004KT 19/19 A2997 RMK A01 T01930190  RH  098%=      5-min Rain = 0
KCR1 251220Z 13004KT 19/19 A2997 RMK A01 T01930190  RH  098%=      5-min Rain = 0
KCR1 251221Z 12004KT 19/19 A2997 RMK A01 T01930190  RH  098%=      5-min Rain = 0
KCR1 251222Z 13004KT 19/19 A2997 RMK A01 T01940190  RH  098%=      5-min Rain = 0
KCR1 251223Z 13003KT 19/19 A2997 RMK A01 T01940191  RH  098%=      5-min Rain = 0
KCR1 251224Z 12004KT 20/19 A2997 RMK A01 T01950191  RH  098%=      5-min Rain = 0
KCR1 251225Z 13003KT 20/19 A2997 RMK A01 T01960192  RH  098%=      5-min Rain = 0
KCR1 251226Z 13004KT 20/19 A2997 RMK A01 T01960192  RH  097%=      5-min Rain = 0
KCR1 251227Z 13004KT 20/19 A2997 RMK A01 T01960192  RH  097%=      5-min Rain = 0
KCR1 251228Z 13004KT 20/19 A2997 RMK A01 T01970193  RH  097%=      5-min Rain = 0
KCR1 251229Z 13003KT 20/19 A2997 RMK A01 T01980193  RH  097%=      5-min Rain = 0
KCR1 251230Z 13004KT 20/19 A2997 RMK A01 T01980193  RH  097%=      5-min Rain = 0
KCR1 251231Z 14005KT 20/19 A2997 RMK A01 T01980193  RH  097%=      5-min Rain = 0
KCR1 251232Z 14004KT 20/19 A2997 RMK A01 T01990194  RH  097%=      5-min Rain = 0
KCR1 251233Z 14004KT 20/19 A2997 RMK A01 T02000194  RH  096%=      5-min Rain = 0
KCR1 251234Z 14005KT 20/20 A2998 RMK A01 T02010195  RH  096%=      5-min Rain = 0
KCR1 251235Z 14004KT 20/20 A2998 RMK A01 T02010195  RH  096%=      5-min Rain = 0
KCR1 251236Z 14004KT 20/20 A2998 RMK A01 T02020196  RH  096%=      5-min Rain = 0
KCR1 251237Z 14005KT 20/20 A2998 RMK A01 T02030196  RH  096%=      5-min Rain = 0
KCR1 251238Z 14005KT 20/20 A2998 RMK A01 T02040197  RH  096%=      5-min Rain = 0
KCR1 251239Z 14006KT 20/20 A2998 RMK A01 T02040196  RH  096%=      5-min Rain = 0
KCR1 251240Z 14005KT 20/20 A2998 RMK A01 T02040196  RH  095%=      5-min Rain = 0
KCR1 251241Z 14006KT 21/20 A2998 RMK A01 T02050196  RH  095%=      5-min Rain = 0
KCR1 251242Z 14006KT 21/20 A2998 RMK A01 T02050196  RH  095%=      5-min Rain = 0
KCR1 251243Z 14005KT 21/20 A2998 RMK A01 T02060196  RH  094%=      5-min Rain = 0
KCR1 251244Z 14006KT 21/20 A2998 RMK A01 T02060197  RH  094%=      5-min Rain = 0
KCR1 251245Z 14006KT 21/20 A2998 RMK A01 T02070197  RH  094%=      5-min Rain = 0
KCR1 251246Z 14007KT 21/20 A2998 RMK A01 T02070197  RH  094%=      5-min Rain = 0
KCR1 251247Z 14006KT 21/20 A2998 RMK A01 T02070197  RH  094%=      5-min Rain = 0
KCR1 251248Z 14006KT 21/20 A2998 RMK A01 T02080197  RH  094%=      5-min Rain = 0
KCR1 251249Z 14006KT 21/20 A2998 RMK A01 T02080198  RH  094%=      5-min Rain = 0
KCR1 251250Z 14006KT 21/20 A2998 RMK A01 T02090198  RH  093%=      5-min Rain = 0
KCR1 251251Z 14006KT 21/20 A2998 RMK A01 T02090198  RH  093%=      5-min Rain = 0
KCR1 251252Z 14006KT 21/20 A2998 RMK A01 T02090198  RH  093%=      5-min Rain = 0
KCR1 251253Z 14006KT 21/20 A2998 RMK A01 T02100198  RH  093%=      5-min Rain = 0
KCR1 251254Z 14007KT 21/20 A2998 RMK A01 T02110199  RH  093%=      5-min Rain = 0
KCR1 251255Z 15006KT 21/20 A2998 RMK A01 T02110198  RH  092%=      5-min Rain = 0
KCR1 251256Z 14005KT 21/20 A2998 RMK A01 T02120200  RH  093%=      5-min Rain = 0
KCR1 251257Z 14006KT 21/20 A2998 RMK A01 T02130201  RH  093%=      5-min Rain = 0
KCR1 251258Z 14006KT 21/20 A2998 RMK A01 T02130201  RH  093%=      5-min Rain = 0
KCR1 251259Z 14006KT 22/20 A2998 RMK A01 T02150202  RH  093%=      5-min Rain = 0
KCR1 251300Z 14006KT 22/20 A2998 RMK A01 T02150201  RH  092%=      5-min Rain = 0
KCR1 251301Z 14006KT 22/20 A2998 RMK A01 T02160201  RH  091%=      5-min Rain = 0
KCR1 251302Z 15006KT 22/20 A2998 RMK A01 T02160202  RH  092%=      5-min Rain = 0
KCR1 251303Z 14006KT 22/20 A2998 RMK A01 T02160200  RH  091%=      5-min Rain = 0
KCR1 251304Z 14006KT 22/20 A2998 RMK A01 T02170202  RH  091%=      5-min Rain = 0
KCR1 251305Z 15006KT 22/20 A2998 RMK A01 T02160202  RH  091%=      5-min Rain = 0
KCR1 251306Z 15007KT 22/20 A2998 RMK A01 T02170202  RH  091%=      5-min Rain = 0
KCR1 251307Z 15008KT 22/20 A2998 RMK A01 T02180202  RH  091%=      5-min Rain = 0
KCR1 251308Z 15008KT 22/20 A2998 RMK A01 T02180202  RH  091%=      5-min Rain = 0
KCR1 251309Z 15009KT 22/20 A2998 RMK A01 T02190203  RH  091%=      5-min Rain = 0
KCR1 251310Z 15008KT 22/20 A2998 RMK A01 T02190201  RH  090%=      5-min Rain = 0
KCR1 251311Z 15009KT 22/20 A2999 RMK A01 T02190202  RH  090%=      5-min Rain = 0
KCR1 251312Z 15009KT 22/20 A2999 RMK A01 T02190202  RH  090%=      5-min Rain = 0
KCR1 251313Z 15008KT 22/20 A2999 RMK A01 T02190201  RH  090%=      5-min Rain = 0
KCR1 251314Z 15008KT 22/20 A2999 RMK A01 T02190203  RH  090%=      5-min Rain = 0
KCR1 251315Z 16007KT 22/20 A2999 RMK A01 T02190203  RH  090%=      5-min Rain = 0
KCR1 251316Z 15007KT 22/20 A2999 RMK A01 T02190203  RH  091%=      5-min Rain = 0
KCR1 251317Z 15008KT 22/20 A2999 RMK A01 T02190204  RH  091%=      5-min Rain = 0
KCR1 251318Z 15010KT 22/20 A2999 RMK A01 T02190203  RH  090%=      5-min Rain = 0
KCR1 251319Z 15008KT 22/20 A2999 RMK A01 T02190202  RH  090%=      5-min Rain = 0
KCR1 251320Z 15011KT 22/20 A2999 RMK A01 T02190202  RH  090%=      5-min Rain = 0
KCR1 251321Z 16010KT 22/20 A2999 RMK A01 T02190202  RH  090%=      5-min Rain = 0
KCR1 251322Z 15010KT 22/20 A2999 RMK A01 T02190201  RH  089%=      5-min Rain = 0
KCR1 251323Z 15011KT 22/20 A2999 RMK A01 T02190201  RH  089%=      5-min Rain = 0
KCR1 251324Z 15009KT 22/20 A2999 RMK A01 T02190201  RH  089%=      5-min Rain = 0
KCR1 251325Z 16011KT 22/20 A2999 RMK A01 T02200202  RH  090%=      5-min Rain = 0
KCR1 251326Z 16012KT 22/20 A2999 RMK A01 T02200201  RH  089%=      5-min Rain = 0
KCR1 251327Z 15010KT 22/20 A2999 RMK A01 T02200202  RH  089%=      5-min Rain = 0
KCR1 251328Z 15012KT 22/20 A2999 RMK A01 T02200202  RH  089%=      5-min Rain = 0
KCR1 251329Z 15010KT 22/20 A2999 RMK A01 T02200201  RH  089%=      5-min Rain = 0
KCR1 251330Z 16012KT 22/20 A2999 RMK A01 T02210202  RH  089%=      5-min Rain = 0
KCR1 251331Z 16011KT 22/20 A2999 RMK A01 T02200200  RH  088%=      5-min Rain = 0
KCR1 251332Z 16009KT 22/20 A2999 RMK A01 T02210202  RH  089%=      5-min Rain = 0
KCR1 251333Z 16009KT 22/20 A2999 RMK A01 T02210203  RH  090%=      5-min Rain = 0
KCR1 251334Z 16011KT 22/20 A2999 RMK A01 T02210203  RH  089%=      5-min Rain = 0
KCR1 251335Z 16012KT 22/20 A2999 RMK A01 T02210202  RH  089%=      5-min Rain = 0
KCR1 251336Z 16012KT 22/20 A2999 RMK A01 T02220202  RH  088%=      5-min Rain = 0
KCR1 251337Z 16013KT 22/20 A2999 RMK A01 T02220201  RH  088%=      5-min Rain = 0
KCR1 251338Z 16012KT 22/20 A2999 RMK A01 T02220201  RH  087%=      5-min Rain = 0
KCR1 251339Z 16012KT 22/20 A2999 RMK A01 T02230201  RH  088%=      5-min Rain = 0
KCR1 251340Z 15011KT 22/20 A2999 RMK A01 T02230201  RH  087%=      5-min Rain = 0
KCR1 251341Z 16011KT 22/20 A30 RMK A01 T02230202  RH  088%=      5-min Rain = 0
KCR1 251342Z 16010KT 22/20 A30 RMK A01 T02230202  RH  088%=      5-min Rain = 0
KCR1 251343Z 16012KT 22/20 A30 RMK A01 T02230202  RH  088%=      5-min Rain = 0
KCR1 251344Z 16011KT 22/20 A30 RMK A01 T02230202  RH  088%=      5-min Rain = 0
KCR1 251345Z 16011KT 22/20 A30 RMK A01 T02230202  RH  088%=      5-min Rain = 0
KCR1 251346Z 16010KT 22/20 A30 RMK A01 T02230202  RH  088%=      5-min Rain = 0
KCR1 251347Z 16010KT 22/20 A30 RMK A01 T02240203  RH  088%=      5-min Rain = 0
KCR1 251348Z 16010KT 22/20 A30 RMK A01 T02240203  RH  088%=      5-min Rain = 0
KCR1 251349Z 16010KT 22/20 A30 RMK A01 T02240203  RH  088%=      5-min Rain = 0
KCR1 251350Z 16009KT 22/20 A30 RMK A01 T02240203  RH  088%=      5-min Rain = 0
KCR1 251351Z 16009KT 23/20 A30 RMK A01 T02250204  RH  088%=      5-min Rain = 0
KCR1 251352Z 16010KT 23/20 A30 RMK A01 T02250203  RH  088%=      5-min Rain = 0
KCR1 251353Z 16011KT 23/20 A30 RMK A01 T02250203  RH  087%=      5-min Rain = 0
KCR1 251354Z 17011KT 23/20 A30 RMK A01 T02250203  RH  087%=      5-min Rain = 0
KCR1 251355Z 16010KT 23/20 A30 RMK A01 T02250203  RH  087%=      5-min Rain = 0
KCR1 251356Z 17011KT 23/20 A30 RMK A01 T02260203  RH  087%=      5-min Rain = 0
KCR1 251357Z 16010KT 23/20 A30 RMK A01 T02260204  RH  087%=      5-min Rain = 0
KCR1 251358Z 17011KT 23/20 A30 RMK A01 T02260203  RH  087%=      5-min Rain = 0
KCR1 251359Z 17010KT 23/20 A30 RMK A01 T02260203  RH  087%=      5-min Rain = 0
KCR1 251400Z 17009KT 23/20 A30 RMK A01 T02270204  RH  087%=      5-min Rain = 0
KCR1 251401Z 17009KT 23/20 A30 RMK A01 T02270204  RH  087%=      5-min Rain = 0
KCR1 251402Z 17008KT 23/21 A30 RMK A01 T02270205  RH  087%=      5-min Rain = 0
KCR1 251403Z 17010KT 23/21 A30 RMK A01 T02280205  RH  087%=      5-min Rain = 0
KCR1 251404Z 16010KT 23/20 A30 RMK A01 T02280204  RH  086%=      5-min Rain = 0
KCR1 251405Z 16011KT 23/20 A30 RMK A01 T02280204  RH  086%=      5-min Rain = 0
KCR1 251406Z 15010KT 23/20 A30 RMK A01 T02280203  RH  086%=      5-min Rain = 0
KCR1 251407Z 17009KT 23/21 A30 RMK A01 T02290205  RH  086%=      5-min Rain = 0
KCR1 251408Z 16011KT 23/21 A30 RMK A01 T02290205  RH  086%=      5-min Rain = 0
KCR1 251409Z 17010KT 23/20 A30 RMK A01 T02300204  RH  085%=      5-min Rain = 0
KCR1 251410Z 17011KT 23/21 A30 RMK A01 T02310205  RH  085%=      5-min Rain = 0
KCR1 251411Z 17010KT 23/20 A30 RMK A01 T02310204  RH  085%=      5-min Rain = 0
KCR1 251412Z 17011KT 23/21 A30 RMK A01 T02310205  RH  085%=      5-min Rain = 0
KCR1 251413Z 17012KT 23/20 A30 RMK A01 T02310204  RH  085%=      5-min Rain = 0
KCR1 251414Z 17010KT 23/20 A30 RMK A01 T02310204  RH  085%=      5-min Rain = 0
KCR1 251415Z 17009KT 23/21 A30 RMK A01 T02320205  RH  085%=      5-min Rain = 0
KCR1 251416Z 16009KT 23/21 A30 RMK A01 T02320206  RH  085%=      5-min Rain = 0
KCR1 251417Z 17009KT 23/21 A30 RMK A01 T02330206  RH  085%=      5-min Rain = 0
KCR1 251418Z 17010KT 23/21 A30 RMK A01 T02340207  RH  085%=      5-min Rain = 0
KCR1 251419Z 17010KT 23/21 A30 RMK A01 T02340205  RH  084%=      5-min Rain = 0
KCR1 251420Z 16010KT 23/21 A30 RMK A01 T02340207  RH  085%=      5-min Rain = 0
KCR1 251421Z 16011KT 24/21 A30 RMK A01 T02350205  RH  084%=      5-min Rain = 0
KCR1 251422Z 16010KT 24/21 A30 RMK A01 T02350205  RH  083%=      5-min Rain = 0
KCR1 251423Z 17011KT 24/21 A30 RMK A01 T02350206  RH  084%=      5-min Rain = 0
KCR1 251424Z 17011KT 24/21 A30 RMK A01 T02360205  RH  083%=      5-min Rain = 0
KCR1 251425Z 16010KT 24/21 A30 RMK A01 T02360206  RH  083%=      5-min Rain = 0
KCR1 251426Z 17010KT 24/21 A30 RMK A01 T02370207  RH  083%=      5-min Rain = 0
KCR1 251427Z 16012KT 24/21 A30 RMK A01 T02380205  RH  082%=      5-min Rain = 0
KCR1 251428Z 17011KT 24/20 A30 RMK A01 T02380204  RH  081%=      5-min Rain = 0
KCR1 251429Z 17013KT 24/21 A30 RMK A01 T02370205  RH  082%=      5-min Rain = 0
KCR1 251430Z 17012KT 24/20 A30 RMK A01 T02370203  RH  082%=      5-min Rain = 0
KCR1 251431Z 17011KT 24/21 A30 RMK A01 T02360205  RH  082%=      5-min Rain = 0
KCR1 251432Z 16009KT 24/21 A30 RMK A01 T02360206  RH  083%=      5-min Rain = 0
KCR1 251433Z 16011KT 24/21 A30 RMK A01 T02370205  RH  082%=      5-min Rain = 0
KCR1 251434Z 16012KT 24/21 A30 RMK A01 T02380206  RH  082%=      5-min Rain = 0
KCR1 251435Z 17011KT 24/21 A30 RMK A01 T02380205  RH  082%=      5-min Rain = 0
KCR1 251436Z 16009KT 24/21 A30 RMK A01 T02380206  RH  082%=      5-min Rain = 0
KCR1 251437Z 16010KT 24/21 A30 RMK A01 T02390208  RH  083%=      5-min Rain = 0
KCR1 251438Z 17010KT 24/21 A30 RMK A01 T02410206  RH  081%=      5-min Rain = 0
KCR1 251439Z 16010KT 24/21 A30 RMK A01 T02420210  RH  082%=      5-min Rain = 0
KCR1 251440Z 17010KT 24/21 A30 RMK A01 T02440208  RH  081%=      5-min Rain = 0
KCR1 251441Z 17010KT 25/21 A30 RMK A01 T02450208  RH  080%=      5-min Rain = 0
KCR1 251442Z 17011KT 25/21 A30 RMK A01 T02450206  RH  079%=      5-min Rain = 0
KCR1 251443Z 17010KT 24/21 A30 RMK A01 T02440207  RH  080%=      5-min Rain = 0
KCR1 251444Z 16012KT 24/21 A30 RMK A01 T02440208  RH  080%=      5-min Rain = 0
KCR1 251445Z 16011KT 24/21 A30 RMK A01 T02440208  RH  080%=      5-min Rain = 0
KCR1 251446Z 16011KT 25/21 A30 RMK A01 T02450209  RH  080%=      5-min Rain = 0
KCR1 251447Z 16012KT 25/21 A30 RMK A01 T02450208  RH  079%=      5-min Rain = 0
KCR1 251448Z 16010KT 25/21 A30 RMK A01 T02450208  RH  080%=      5-min Rain = 0
KCR1 251449Z 16011KT 25/21 A30 RMK A01 T02450209  RH  080%=      5-min Rain = 0
KCR1 251450Z 17011KT 25/21 A30 RMK A01 T02450207  RH  079%=      5-min Rain = 0
KCR1 251451Z 18010KT 24/21 A30 RMK A01 T02430207  RH  080%=      5-min Rain = 0
KCR1 251452Z 17010KT 24/21 A30 RMK A01 T02420207  RH  081%=      5-min Rain = 0
KCR1 251453Z 16010KT 24/21 A30 RMK A01 T02420206  RH  080%=      5-min Rain = 0
KCR1 251454Z 16011KT 24/21 A30 RMK A01 T02420207  RH  081%=      5-min Rain = 0
KCR1 251455Z 18012KT 24/21 A30 RMK A01 T02440208  RH  081%=      5-min Rain = 0
KCR1 251456Z 18011KT 25/21 A30 RMK A01 T02450207  RH  080%=      5-min Rain = 0
KCR1 251457Z 18011KT 25/21 A30 RMK A01 T02450209  RH  081%=      5-min Rain = 0
KCR1 251458Z 17011KT 25/21 A30 RMK A01 T02470209  RH  080%=      5-min Rain = 0
KCR1 251459Z 17011KT 25/21 A30 RMK A01 T02490210  RH  079%=      5-min Rain = 0
KCR1 251500Z 17012KT 25/21 A30 RMK A01 T02500209  RH  078%=      5-min Rain = 0
KCR1 251501Z 16012KT 25/21 A30 RMK A01 T02500207  RH  077%=      5-min Rain = 0
KCR1 251502Z 17012KT 25/21 A30 RMK A01 T02490207  RH  078%=      5-min Rain = 0
KCR1 251503Z 17011KT 25/21 A30 RMK A01 T02480207  RH  078%=      5-min Rain = 0
KCR1 251504Z 17009KT 25/21 A30 RMK A01 T02470207  RH  078%=      5-min Rain = 0
KCR1 251505Z 17011KT 25/21 A30 RMK A01 T02480208  RH  079%=      5-min Rain = 0
KCR1 251506Z 18011KT 25/21 A30 RMK A01 T02480208  RH  078%=      5-min Rain = 0
KCR1 251507Z 16009KT 25/21 A30 RMK A01 T02480210  RH  079%=      5-min Rain = 0
KCR1 251508Z 18011KT 25/21 A30 RMK A01 T02500210  RH  079%=      5-min Rain = 0
KCR1 251509Z 18010KT 25/21 A30 RMK A01 T02510210  RH  078%=      5-min Rain = 0
KCR1 251510Z 18009KT 25/21 A30 RMK A01 T02500209  RH  078%=      5-min Rain = 0
KCR1 251511Z 18010KT 25/21 A30 RMK A01 T02500210  RH  078%=      5-min Rain = 0
KCR1 251512Z 17012KT 25/21 A30 RMK A01 T02490209  RH  078%=      5-min Rain = 0
KCR1 251513Z 17011KT 25/21 A30 RMK A01 T02490208  RH  078%=      5-min Rain = 0
KCR1 251514Z 18010KT 25/21 A30 RMK A01 T02500209  RH  078%=      5-min Rain = 0
KCR1 251515Z 18011KT 25/21 A30 RMK A01 T02510210  RH  078%=      5-min Rain = 0
KCR1 251516Z 18009KT 25/21 A30 RMK A01 T02510210  RH  078%=      5-min Rain = 0
KCR1 251517Z 17009KT 25/21 A30 RMK A01 T02510211  RH  078%=      5-min Rain = 0
KCR1 251518Z 16012KT 25/21 A30 RMK A01 T02530211  RH  078%=      5-min Rain = 0
KCR1 251519Z 17010KT 25/21 A30 RMK A01 T02540210  RH  077%=      5-min Rain = 0
KCR1 251520Z 18009KT 26/21 A30 RMK A01 T02550213  RH  078%=      5-min Rain = 0
KCR1 251521Z 17012KT 26/21 A30 RMK A01 T02550210  RH  076%=      5-min Rain = 0
KCR1 251522Z 16011KT 26/21 A30 RMK A01 T02550211  RH  077%=      5-min Rain = 0
KCR1 251523Z 17012KT 26/21 A30 RMK A01 T02550211  RH  077%=      5-min Rain = 0
KCR1 251524Z 17013KT 26/21 A30 RMK A01 T02550210  RH  076%=      5-min Rain = 0
KCR1 251525Z 16010KT 25/21 A30 RMK A01 T02540211  RH  077%=      5-min Rain = 0
KCR1 251526Z 18010KT 25/21 A30 RMK A01 T02540212  RH  078%=      5-min Rain = 0
KCR1 251527Z 17010KT 25/21 A30 RMK A01 T02540210  RH  077%=      5-min Rain = 0
KCR1 251528Z 16010KT 25/21 A30 RMK A01 T02540211  RH  077%=      5-min Rain = 0
KCR1 251529Z 17011KT 25/21 A30 RMK A01 T02540211  RH  077%=      5-min Rain = 0
KCR1 251530Z 18013KT 25/21 A30 RMK A01 T02540210  RH  077%=      5-min Rain = 0
KCR1 251531Z 18009KT 25/21 A30 RMK A01 T02540211  RH  077%=      5-min Rain = 0
KCR1 251532Z 18011KT 25/21 A30 RMK A01 T02530212  RH  078%=      5-min Rain = 0
KCR1 251533Z 18010KT 25/21 A30 RMK A01 T02530211  RH  078%=      5-min Rain = 0
KCR1 251534Z 18011KT 25/21 A30 RMK A01 T02530211  RH  078%=      5-min Rain = 0
KCR1 251535Z 18011KT 25/21 A30 RMK A01 T02530210  RH  077%=      5-min Rain = 0
KCR1 251536Z 18010KT 25/21 A30 RMK A01 T02530212  RH  078%=      5-min Rain = 0
KCR1 251537Z 19010KT 25/21 A30 RMK A01 T02540211  RH  077%=      5-min Rain = 0
KCR1 251538Z 18009KT 25/21 A30 RMK A01 T02540213  RH  078%=      5-min Rain = 0
KCR1 251539Z 18010KT 26/21 A30 RMK A01 T02550212  RH  077%=      5-min Rain = 0
KCR1 251540Z 18012KT 26/21 A30 RMK A01 T02550213  RH  077%=      5-min Rain = 0
KCR1 251541Z 17011KT 25/21 A30 RMK A01 T02540211  RH  077%=      5-min Rain = 0
KCR1 251542Z 19011KT 26/21 A30 RMK A01 T02550211  RH  077%=      5-min Rain = 0
KCR1 251543Z 19011KT 26/21 A30 RMK A01 T02550212  RH  077%=      5-min Rain = 0
KCR1 251544Z 18013KT 26/21 A30 RMK A01 T02550211  RH  076%=      5-min Rain = 0
KCR1 251545Z 17012KT 26/21 A30 RMK A01 T02560211  RH  076%=      5-min Rain = 0
KCR1 251546Z 18012KT 26/21 A30 RMK A01 T02570213  RH  076%=      5-min Rain = 0
KCR1 251547Z 18012KT 26/21 A30 RMK A01 T02580213  RH  076%=      5-min Rain = 0
KCR1 251548Z 18012KT 26/21 A30 RMK A01 T02580212  RH  075%=      5-min Rain = 0
KCR1 251549Z 17012KT 26/21 A30 RMK A01 T02580213  RH  076%=      5-min Rain = 0
KCR1 251550Z 18013KT 26/21 A30 RMK A01 T02600212  RH  075%=      5-min Rain = 0
KCR1 251551Z 18015KT 26/21 A30 RMK A01 T02600211  RH  074%=      5-min Rain = 0
KCR1 251552Z 17013KT 26/21 A30 RMK A01 T02600211  RH  074%=      5-min Rain = 0
KCR1 251553Z 18012KT 26/21 A30 RMK A01 T02600212  RH  075%=      5-min Rain = 0
KCR1 251554Z 19013KT 26/21 A30 RMK A01 T02600213  RH  075%=      5-min Rain = 0
KCR1 251555Z 18010KT 26/21 A30 RMK A01 T02600214  RH  076%=      5-min Rain = 0
KCR1 251556Z 18013G18KT 26/21 A30 RMK A01 T02600214  RH  076%=      5-min Rain = 0
KCR1 251557Z 18018KT 26/21 A30 RMK A01 T02600211  RH  074%=      5-min Rain = 0
KCR1 251558Z 18016KT 26/21 A30 RMK A01 T02590209  RH  074%=      5-min Rain = 0
KCR1 251559Z 18015KT 26/21 A30 RMK A01 T02580210  RH  075%=      5-min Rain = 0
KCR1 251600Z 19014KT 26/21 A30 RMK A01 T02580212  RH  076%=      5-min Rain = 0
KCR1 251601Z 19013KT 26/21 A30 RMK A01 T02580212  RH  076%=      5-min Rain = 0
KCR1 251602Z 19013KT 26/21 A30 RMK A01 T02570212  RH  076%=      5-min Rain = 0
KCR1 251603Z 19015KT 26/21 A30 RMK A01 T02570212  RH  076%=      5-min Rain = 0
KCR1 251604Z 18012KT 26/21 A30 RMK A01 T02570212  RH  076%=      5-min Rain = 0
KCR1 251605Z 18013KT 26/21 A30 RMK A01 T02570213  RH  077%=      5-min Rain = 0
KCR1 251606Z 19015KT 26/21 A30 RMK A01 T02580211  RH  075%=      5-min Rain = 0
KCR1 251607Z 18014KT 26/21 A30 RMK A01 T02580212  RH  076%=      5-min Rain = 0
KCR1 251608Z 18012KT 26/21 A30 RMK A01 T02580213  RH  076%=      5-min Rain = 0
KCR1 251609Z 18013KT 26/21 A30 RMK A01 T02580212  RH  076%=      5-min Rain = 0
KCR1 251610Z 19010KT 26/21 A30 RMK A01 T02580214  RH  076%=      5-min Rain = 0
KCR1 251611Z 18010KT 26/21 A30 RMK A01 T02590214  RH  076%=      5-min Rain = 0
KCR1 251612Z 19016KT 26/21 A30 RMK A01 T02590213  RH  076%=      5-min Rain = 0
KCR1 251613Z 20018KT 26/21 A30 RMK A01 T02590211  RH  075%=      5-min Rain = 0
KCR1 251614Z 18014KT 26/21 A30 RMK A01 T02590213  RH  076%=      5-min Rain = 0
KCR1 251615Z 18013KT 26/21 A30 RMK A01 T02590212  RH  075%=      5-min Rain = 0
KCR1 251616Z 19012KT 26/22 A30 RMK A01 T02600215  RH  076%=      5-min Rain = 0
KCR1 251617Z 18014KT 26/21 A30 RMK A01 T02610213  RH  075%=      5-min Rain = 0
KCR1 251618Z 19016KT 26/21 A30 RMK A01 T02610211  RH  074%=      5-min Rain = 0
KCR1 251619Z 19017KT 26/21 A30 RMK A01 T02610213  RH  075%=      5-min Rain = 0
KCR1 251620Z 19017KT 26/21 A30 RMK A01 T02610212  RH  074%=      5-min Rain = 0
KCR1 251621Z 19017KT 26/21 A30 RMK A01 T02610212  RH  075%=      5-min Rain = 0
KCR1 251622Z 19016KT 26/21 A30 RMK A01 T02610211  RH  074%=      5-min Rain = 0
KCR1 251623Z 18016KT 26/21 A30 RMK A01 T02610212  RH  075%=      5-min Rain = 0
KCR1 251624Z 18016KT 26/21 A30 RMK A01 T02610211  RH  074%=      5-min Rain = 0
KCR1 251625Z 18014KT 26/21 A30 RMK A01 T02610212  RH  074%=      5-min Rain = 0
KCR1 251626Z 19014KT 26/21 A30 RMK A01 T02620212  RH  074%=      5-min Rain = 0
KCR1 251627Z 20014KT 26/21 A30 RMK A01 T02610214  RH  075%=      5-min Rain = 0
KCR1 251628Z 19013KT 26/21 A30 RMK A01 T02620214  RH  075%=      5-min Rain = 0
KCR1 251629Z 18011KT 26/22 A30 RMK A01 T02620216  RH  076%=      5-min Rain = 0
KCR1 251630Z 18011KT 26/22 A30 RMK A01 T02620216  RH  076%=      5-min Rain = 0
KCR1 251631Z 18013KT 26/21 A30 RMK A01 T02620213  RH  075%=      5-min Rain = 0
KCR1 251632Z 17013KT 26/22 A30 RMK A01 T02620215  RH  075%=      5-min Rain = 0
KCR1 251633Z 18011KT 26/21 A30 RMK A01 T02630214  RH  075%=      5-min Rain = 0
KCR1 251634Z 18011KT 26/22 A30 RMK A01 T02640216  RH  075%=      5-min Rain = 0
KCR1 251635Z 18013KT 26/22 A30 RMK A01 T02640216  RH  075%=      5-min Rain = 0
KCR1 251636Z 18011KT 26/22 A30 RMK A01 T02640216  RH  075%=      5-min Rain = 0
KCR1 251637Z 18010KT 27/22 A2999 RMK A01 T02650218  RH  075%=      5-min Rain = 0
KCR1 251638Z 17010KT 27/22 A2999 RMK A01 T02660220  RH  076%=      5-min Rain = 0
KCR1 251639Z 18014KT 27/22 A2999 RMK A01 T02660216  RH  074%=      5-min Rain = 0
KCR1 251640Z 18013KT 27/22 A2999 RMK A01 T02670215  RH  073%=      5-min Rain = 0
KCR1 251641Z 19013KT 27/22 A2999 RMK A01 T02670217  RH  074%=      5-min Rain = 0
KCR1 251642Z 19015KT 27/22 A2999 RMK A01 T02670216  RH  073%=      5-min Rain = 0
KCR1 251643Z 17013G18KT 27/22 A2999 RMK A01 T02670217  RH  074%=      5-min Rain = 0
KCR1 251644Z 18016KT 27/22 A2999 RMK A01 T02680215  RH  073%=      5-min Rain = 0
KCR1 251645Z 18015KT 27/22 A2999 RMK A01 T02690215  RH  072%=      5-min Rain = 0
KCR1 251646Z 18016KT 27/21 A2999 RMK A01 T02700214  RH  071%=      5-min Rain = 0
KCR1 251647Z 18017KT 27/21 A2999 RMK A01 T02700214  RH  072%=      5-min Rain = 0
KCR1 251648Z 19014KT 27/22 A2999 RMK A01 T02710216  RH  072%=      5-min Rain = 0
KCR1 251649Z 18016KT 27/22 A2999 RMK A01 T02710216  RH  072%=      5-min Rain = 0
KCR1 251650Z 19015KT 27/22 A2999 RMK A01 T02710215  RH  071%=      5-min Rain = 0
KCR1 251651Z 19014KT 27/22 A2999 RMK A01 T02710215  RH  071%=      5-min Rain = 0
KCR1 251652Z 18016KT 27/22 A2999 RMK A01 T02710216  RH  071%=      5-min Rain = 0
KCR1 251653Z 18016KT 27/21 A2999 RMK A01 T02710214  RH  071%=      5-min Rain = 0
KCR1 251654Z 19016KT 27/22 A2999 RMK A01 T02720216  RH  071%=      5-min Rain = 0
KCR1 251655Z 18014KT 27/22 A2999 RMK A01 T02730218  RH  072%=      5-min Rain = 0
KCR1 251656Z 18016KT 27/22 A2999 RMK A01 T02740215  RH  070%=      5-min Rain = 0
KCR1 251657Z 18018KT 27/22 A2999 RMK A01 T02740215  RH  070%=      5-min Rain = 0
KCR1 251658Z 19017KT 27/21 A2999 RMK A01 T02730213  RH  070%=      5-min Rain = 0
KCR1 251659Z 18016KT 27/21 A2999 RMK A01 T02710213  RH  071%=      5-min Rain = 0
KCR1 251700Z 19012KT 27/22 A2999 RMK A01 T02700216  RH  072%=      5-min Rain = 0
KCR1 251701Z 19013KT 27/22 A2999 RMK A01 T02710219  RH  073%=      5-min Rain = 0
KCR1 251702Z 18012KT 27/22 A2999 RMK A01 T02710220  RH  074%=      5-min Rain = 0
KCR1 251703Z 19016KT 27/22 A2999 RMK A01 T02720218  RH  072%=      5-min Rain = 0
KCR1 251704Z 19019G24KT 27/21 A2999 RMK A01 T02720214  RH  071%=      5-min Rain = 0
KCR1 251705Z 19018KT 27/21 A2999 RMK A01 T02700214  RH  071%=      5-min Rain = 0
KCR1 251706Z 19018KT 27/21 A2999 RMK A01 T02700214  RH  071%=      5-min Rain = 0
KCR1 251707Z 19018KT 27/22 A2999 RMK A01 T02700215  RH  072%=      5-min Rain = 0
KCR1 251708Z 19017KT 27/21 A2999 RMK A01 T02700214  RH  072%=      5-min Rain = 0
KCR1 251709Z 18016KT 27/21 A2999 RMK A01 T02700214  RH  072%=      5-min Rain = 0
KCR1 251710Z 18013KT 27/22 A2999 RMK A01 T02700215  RH  072%=      5-min Rain = 0
KCR1 251711Z 18014KT 27/22 A2999 RMK A01 T02700216  RH  072%=      5-min Rain = 0
KCR1 251712Z 18013KT 27/22 A2999 RMK A01 T02700215  RH  072%=      5-min Rain = 0
KCR1 251713Z 19014KT 27/22 A2999 RMK A01 T02700217  RH  073%=      5-min Rain = 0
KCR1 251714Z 19014KT 27/22 A2999 RMK A01 T02690217  RH  073%=      5-min Rain = 0
KCR1 251715Z 18015KT 27/22 A2999 RMK A01 T02690217  RH  073%=      5-min Rain = 0
KCR1 251716Z 19016KT 27/22 A2999 RMK A01 T02700215  RH  072%=      5-min Rain = 0
KCR1 251717Z 19015KT 27/21 A2999 RMK A01 T02710214  RH  071%=      5-min Rain = 0
KCR1 251718Z 19014KT 27/22 A2999 RMK A01 T02710216  RH  072%=      5-min Rain = 0
KCR1 251719Z 19014KT 27/22 A2999 RMK A01 T02710217  RH  073%=      5-min Rain = 0
KCR1 251720Z 19014KT 27/22 A2999 RMK A01 T02710217  RH  072%=      5-min Rain = 0
KCR1 251721Z 18013G18KT 27/22 A2999 RMK A01 T02710218  RH  073%=      5-min Rain = 0
KCR1 251722Z 19016KT 27/22 A2999 RMK A01 T02710215  RH  072%=      5-min Rain = 0
KCR1 251723Z 19015KT 27/22 A2999 RMK A01 T02700215  RH  072%=      5-min Rain = 0
KCR1 251724Z 19016KT 27/22 A2999 RMK A01 T02700217  RH  072%=      5-min Rain = 0
KCR1 251725Z 20017KT 27/21 A2999 RMK A01 T02700214  RH  071%=      5-min Rain = 0
KCR1 251726Z 19016KT 27/22 A2999 RMK A01 T02700216  RH  072%=      5-min Rain = 0
KCR1 251727Z 19017KT 27/22 A2999 RMK A01 T02700215  RH  072%=      5-min Rain = 0
KCR1 251728Z 19013KT 27/22 A2999 RMK A01 T02700217  RH  073%=      5-min Rain = 0
KCR1 251729Z 18013KT 27/22 A2999 RMK A01 T02700218  RH  073%=      5-min Rain = 0
KCR1 251730Z 18015KT 27/22 A2999 RMK A01 T02700216  RH  072%=      5-min Rain = 0
KCR1 251731Z 18015KT 27/22 A2999 RMK A01 T02710217  RH  072%=      5-min Rain = 0
KCR1 251732Z 18015KT 27/21 A2999 RMK A01 T02720214  RH  071%=      5-min Rain = 0
KCR1 251733Z 18016KT 27/22 A2999 RMK A01 T02710215  RH  071%=      5-min Rain = 0
KCR1 251734Z 18014KT 27/22 A2999 RMK A01 T02720215  RH  071%=      5-min Rain = 0
KCR1 251735Z 18015G21KT 27/22 A2999 RMK A01 T02710215  RH  071%=      5-min Rain = 0
KCR1 251736Z 19017KT 27/22 A2998 RMK A01 T02710215  RH  071%=      5-min Rain = 0
KCR1 251737Z 19016G21KT 27/22 A2998 RMK A01 T02720215  RH  071%=      5-min Rain = 0
KCR1 251738Z 19014KT 27/22 A2998 RMK A01 T02710216  RH  072%=      5-min Rain = 0
KCR1 251739Z 19016KT 27/22 A2998 RMK A01 T02720216  RH  072%=      5-min Rain = 0
KCR1 251740Z 19016KT 27/22 A2998 RMK A01 T02720215  RH  071%=      5-min Rain = 0
KCR1 251741Z 19015KT 27/22 A2998 RMK A01 T02720215  RH  071%=      5-min Rain = 0
KCR1 251742Z 19015KT 27/22 A2998 RMK A01 T02720215  RH  071%=      5-min Rain = 0
KCR1 251743Z 20015KT 27/22 A2998 RMK A01 T02720215  RH  071%=      5-min Rain = 0
KCR1 251744Z 19014KT 27/22 A2998 RMK A01 T02710216  RH  071%=      5-min Rain = 0
KCR1 251745Z 19015KT 27/21 A2998 RMK A01 T02720213  RH  070%=      5-min Rain = 0
KCR1 251746Z 19014KT 27/22 A2998 RMK A01 T02720215  RH  071%=      5-min Rain = 0
KCR1 251747Z 18015KT 27/22 A2998 RMK A01 T02720216  RH  072%=      5-min Rain = 0
KCR1 251748Z 18017KT 27/21 A2998 RMK A01 T02720214  RH  071%=      5-min Rain = 0
KCR1 251749Z 19015G20KT 27/21 A2998 RMK A01 T02730212  RH  070%=      5-min Rain = 0
KCR1 251750Z 19014KT 27/22 A2998 RMK A01 T02730215  RH  071%=      5-min Rain = 0
KCR1 251751Z 19014KT 27/22 A2998 RMK A01 T02730216  RH  071%=      5-min Rain = 0
KCR1 251752Z 19014KT 27/22 A2998 RMK A01 T02730216  RH  071%=      5-min Rain = 0
KCR1 251753Z 19013KT 27/21 A2998 RMK A01 T02730214  RH  070%=      5-min Rain = 0
KCR1 251754Z 19014KT 27/22 A2998 RMK A01 T02730217  RH  072%=      5-min Rain = 0
KCR1 251755Z 19015KT 27/22 A2998 RMK A01 T02720215  RH  071%=      5-min Rain = 0
KCR1 251756Z 18014KT 27/22 A2998 RMK A01 T02720216  RH  071%=      5-min Rain = 0
KCR1 251757Z 18013KT 27/22 A2998 RMK A01 T02710215  RH  071%=      5-min Rain = 0
KCR1 251758Z 18011KT 27/22 A2998 RMK A01 T02710217  RH  072%=      5-min Rain = 0
KCR1 251759Z 18014G19KT 27/22 A2998 RMK A01 T02710218  RH  072%=      5-min Rain = 0
KCR1 251800Z 18012KT 27/22 A2998 RMK A01 T02720216  RH  071%=      5-min Rain = 0
KCR1 251801Z 18015KT 27/22 A2998 RMK A01 T02720215  RH  071%=      5-min Rain = 0
KCR1 251802Z 18016KT 27/21 A2998 RMK A01 T02720214  RH  071%=      5-min Rain = 0
KCR1 251803Z 18016KT 27/21 A2998 RMK A01 T02710214  RH  071%=      5-min Rain = 0
KCR1 251804Z 18013KT 27/22 A2998 RMK A01 T02720216  RH  071%=      5-min Rain = 0
KCR1 251805Z 18010KT 27/22 A2998 RMK A01 T02720217  RH  072%=      5-min Rain = 0
KCR1 251806Z 18010KT 27/22 A2998 RMK A01 T02720219  RH  073%=      5-min Rain = 0
KCR1 251807Z 17015KT 27/22 A2998 RMK A01 T02720216  RH  071%=      5-min Rain = 0
KCR1 251808Z 17014KT 27/22 A2997 RMK A01 T02730215  RH  071%=      5-min Rain = 0
KCR1 251809Z 18014KT 27/22 A2998 RMK A01 T02720215  RH  071%=      5-min Rain = 0
KCR1 251810Z 18013KT 27/22 A2997 RMK A01 T02720216  RH  071%=      5-min Rain = 0
KCR1 251811Z 17014KT 27/22 A2997 RMK A01 T02720217  RH  072%=      5-min Rain = 0
KCR1 251812Z 17016KT 27/22 A2997 RMK A01 T02720215  RH  071%=      5-min Rain = 0
KCR1 251813Z 18014KT 27/21 A2997 RMK A01 T02720214  RH  071%=      5-min Rain = 0
KCR1 251814Z 18013KT 27/22 A2997 RMK A01 T02720216  RH  071%=      5-min Rain = 0
KCR1 251815Z 18011KT 27/22 A2997 RMK A01 T02730217  RH  072%=      5-min Rain = 0
KCR1 251816Z 18010KT 27/22 A2997 RMK A01 T02730220  RH  073%=      5-min Rain = 0
KCR1 251817Z 18013KT 27/22 A2997 RMK A01 T02740219  RH  072%=      5-min Rain = 0
KCR1 251818Z 18014KT 27/22 A2997 RMK A01 T02740216  RH  071%=      5-min Rain = 0
KCR1 251819Z 18014KT 27/22 A2997 RMK A01 T02740217  RH  071%=      5-min Rain = 0
KCR1 251820Z 18013KT 27/22 A2997 RMK A01 T02740217  RH  071%=      5-min Rain = 0
KCR1 251821Z 17014KT 27/22 A2997 RMK A01 T02740217  RH  071%=      5-min Rain = 0
KCR1 251822Z 18012KT 27/22 A2997 RMK A01 T02740217  RH  071%=      5-min Rain = 0
KCR1 251823Z 17014KT 28/22 A2997 RMK A01 T02750218  RH  071%=      5-min Rain = 0
KCR1 251824Z 18013KT 28/22 A2997 RMK A01 T02750218  RH  071%=      5-min Rain = 0
KCR1 251825Z 18013KT 28/22 A2997 RMK A01 T02750219  RH  071%=      5-min Rain = 0
KCR1 251826Z 18012KT 28/22 A2997 RMK A01 T02750218  RH  071%=      5-min Rain = 0
KCR1 251827Z 17014KT 28/22 A2997 RMK A01 T02750216  RH  070%=      5-min Rain = 0
KCR1 251828Z 17013KT 28/22 A2997 RMK A01 T02750216  RH  070%=      5-min Rain = 0
KCR1 251829Z 17013KT 28/22 A2996 RMK A01 T02750215  RH  070%=      5-min Rain = 0
KCR1 251830Z 17011KT 28/22 A2996 RMK A01 T02750217  RH  071%=      5-min Rain = 0
KCR1 251831Z 17012KT 28/22 A2996 RMK A01 T02750218  RH  071%=      5-min Rain = 0
KCR1 251832Z 17011KT 28/22 A2996 RMK A01 T02750218  RH  071%=      5-min Rain = 0
KCR1 251833Z 17012KT 28/22 A2996 RMK A01 T02750218  RH  071%=      5-min Rain = 0
KCR1 251834Z 18012KT 28/22 A2996 RMK A01 T02760219  RH  071%=      5-min Rain = 0
KCR1 251835Z 18012KT 28/22 A2996 RMK A01 T02760217  RH  070%=      5-min Rain = 0
KCR1 251836Z 18009KT 28/22 A2996 RMK A01 T02770220  RH  071%=      5-min Rain = 0
KCR1 251837Z 18010KT 28/22 A2996 RMK A01 T02770221  RH  071%=      5-min Rain = 0
KCR1 251838Z 17011KT 28/22 A2996 RMK A01 T02780220  RH  071%=      5-min Rain = 0
KCR1 251839Z 18010KT 28/22 A2996 RMK A01 T02780220  RH  071%=      5-min Rain = 0
KCR1 251840Z 17012KT 28/22 A2996 RMK A01 T02780220  RH  071%=      5-min Rain = 0
KCR1 251841Z 17011KT 28/22 A2996 RMK A01 T02780219  RH  070%=      5-min Rain = 0
KCR1 251842Z 18012KT 28/22 A2996 RMK A01 T02780217  RH  069%=      5-min Rain = 0
KCR1 251843Z 18014KT 28/22 A2996 RMK A01 T02790218  RH  070%=      5-min Rain = 0
KCR1 251844Z 18013KT 28/22 A2996 RMK A01 T02790215  RH  068%=      5-min Rain = 0
KCR1 251845Z 17012KT 28/22 A2996 RMK A01 T02800219  RH  069%=      5-min Rain = 0
KCR1 251846Z 17014KT 28/22 A2996 RMK A01 T02800218  RH  069%=      5-min Rain = 0
KCR1 251847Z 18015KT 28/22 A2996 RMK A01 T02810218  RH  069%=      5-min Rain = 0
KCR1 251848Z 18015KT 28/22 A2996 RMK A01 T02810216  RH  068%=      5-min Rain = 0
KCR1 251849Z 19014KT 28/22 A2996 RMK A01 T02810217  RH  068%=      5-min Rain = 0
KCR1 251850Z 18013KT 28/22 A2996 RMK A01 T02810217  RH  068%=      5-min Rain = 0
KCR1 251851Z 18014KT 28/22 A2995 RMK A01 T02810218  RH  069%=      5-min Rain = 0
KCR1 251852Z 18016KT 28/22 A2995 RMK A01 T02810216  RH  068%=      5-min Rain = 0
KCR1 251853Z 18014KT 28/22 A2995 RMK A01 T02810217  RH  068%=      5-min Rain = 0
KCR1 251854Z 19013KT 28/22 A2995 RMK A01 T02810219  RH  069%=      5-min Rain = 0
KCR1 251855Z 18013KT 28/22 A2995 RMK A01 T02810218  RH  068%=      5-min Rain = 0
KCR1 251856Z 18016KT 28/22 A2995 RMK A01 T02810217  RH  068%=      5-min Rain = 0
KCR1 251857Z 18017KT 28/22 A2995 RMK A01 T02820217  RH  068%=      5-min Rain = 0
KCR1 251858Z 18014KT 28/22 A2995 RMK A01 T02820217  RH  068%=      5-min Rain = 0
KCR1 251859Z 18014KT 28/22 A2995 RMK A01 T02820217  RH  068%=      5-min Rain = 0
KCR1 251900Z 18013G18KT 28/22 A2995 RMK A01 T02830219  RH  068%=      5-min Rain = 0
KCR1 251901Z 17015KT 28/22 A2995 RMK A01 T02820218  RH  068%=      5-min Rain = 0
KCR1 251902Z 18016KT 28/22 A2995 RMK A01 T02830216  RH  067%=      5-min Rain = 0
KCR1 251903Z 18017KT 28/22 A2995 RMK A01 T02830216  RH  067%=      5-min Rain = 0
KCR1 251904Z 17017KT 28/22 A2995 RMK A01 T02820215  RH  067%=      5-min Rain = 0
KCR1 251905Z 17016KT 28/21 A2995 RMK A01 T02810214  RH  067%=      5-min Rain = 0
KCR1 251906Z 18016KT 28/22 A2995 RMK A01 T02810215  RH  067%=      5-min Rain = 0
KCR1 251907Z 17014KT 28/22 A2995 RMK A01 T02810216  RH  068%=      5-min Rain = 0
KCR1 251908Z 18015KT 28/22 A2995 RMK A01 T02810216  RH  068%=      5-min Rain = 0
KCR1 251909Z 18014KT 28/22 A2995 RMK A01 T02810215  RH  068%=      5-min Rain = 0
KCR1 251910Z 18014KT 28/22 A2995 RMK A01 T02820217  RH  068%=      5-min Rain = 0
KCR1 251911Z 19014KT 28/22 A2995 RMK A01 T02830217  RH  068%=      5-min Rain = 0
KCR1 251912Z 18012KT 28/22 A2995 RMK A01 T02830218  RH  068%=      5-min Rain = 0
KCR1 251913Z 18012KT 28/22 A2995 RMK A01 T02840221  RH  069%=      5-min Rain = 0
KCR1 251914Z 18013KT 28/22 A2995 RMK A01 T02840220  RH  068%=      5-min Rain = 0
KCR1 251915Z 17013G18KT 28/22 A2995 RMK A01 T02840219  RH  068%=      5-min Rain = 0
KCR1 251916Z 18013KT 28/22 A2995 RMK A01 T02830218  RH  068%=      5-min Rain = 0
KCR1 251917Z 17015KT 28/22 A2995 RMK A01 T02830217  RH  067%=      5-min Rain = 0
KCR1 251918Z 17014KT 28/22 A2995 RMK A01 T02830217  RH  067%=      5-min Rain = 0
KCR1 251919Z 17015KT 28/22 A2995 RMK A01 T02830216  RH  067%=      5-min Rain = 0
KCR1 251920Z 17015KT 28/22 A2995 RMK A01 T02830216  RH  067%=      5-min Rain = 0
KCR1 251921Z 18014KT 28/22 A2995 RMK A01 T02830216  RH  067%=      5-min Rain = 0
KCR1 251922Z 18015KT 28/22 A2995 RMK A01 T02840216  RH  067%=      5-min Rain = 0
KCR1 251923Z 18015KT 28/22 A2995 RMK A01 T02830215  RH  067%=      5-min Rain = 0
KCR1 251924Z 18016KT 28/22 A2995 RMK A01 T02830216  RH  067%=      5-min Rain = 0
KCR1 251925Z 18020KT 28/21 A2995 RMK A01 T02840214  RH  066%=      5-min Rain = 0
KCR1 251926Z 18019KT 28/21 A2995 RMK A01 T02840214  RH  066%=      5-min Rain = 0
KCR1 251927Z 18016KT 28/22 A2995 RMK A01 T02840215  RH  066%=      5-min Rain = 0
KCR1 251928Z 18014KT 29/22 A2995 RMK A01 T02850216  RH  066%=      5-min Rain = 0
KCR1 251929Z 18016KT 29/22 A2995 RMK A01 T02860217  RH  066%=      5-min Rain = 0
KCR1 251930Z 18013KT 29/22 A2995 RMK A01 T02870219  RH  067%=      5-min Rain = 0
KCR1 251931Z 18013KT 29/22 A2994 RMK A01 T02880220  RH  066%=      5-min Rain = 0
KCR1 251932Z 18013KT 29/22 A2994 RMK A01 T02890222  RH  067%=      5-min Rain = 0
KCR1 251933Z 17018KT 29/22 A2994 RMK A01 T02900219  RH  065%=      5-min Rain = 0
KCR1 251934Z 17014KT 29/22 A2994 RMK A01 T02910218  RH  065%=      5-min Rain = 0
KCR1 251935Z 18014KT 29/22 A2994 RMK A01 T02920219  RH  065%=      5-min Rain = 0
KCR1 251936Z 17014KT 29/22 A2994 RMK A01 T02920221  RH  066%=      5-min Rain = 0
KCR1 251937Z 17013KT 29/22 A2994 RMK A01 T02920220  RH  066%=      5-min Rain = 0
KCR1 251938Z 17016KT 29/22 A2994 RMK A01 T02920218  RH  065%=      5-min Rain = 0
KCR1 251939Z 18015KT 29/22 A2994 RMK A01 T02920219  RH  065%=      5-min Rain = 0
KCR1 251940Z 17019KT 29/22 A2994 RMK A01 T02920218  RH  065%=      5-min Rain = 0
KCR1 251941Z 17017KT 29/22 A2994 RMK A01 T02920217  RH  064%=      5-min Rain = 0
KCR1 251942Z 17015G20KT 29/22 A2994 RMK A01 T02920218  RH  064%=      5-min Rain = 0
KCR1 251943Z 17017KT 29/22 A2994 RMK A01 T02920218  RH  064%=      5-min Rain = 0
KCR1 251944Z 17017KT 29/22 A2994 RMK A01 T02920218  RH  064%=      5-min Rain = 0
KCR1 251945Z 17018KT 29/22 A2994 RMK A01 T02910216  RH  064%=      5-min Rain = 0
KCR1 251946Z 17013KT 29/22 A2994 RMK A01 T02900217  RH  065%=      5-min Rain = 0
KCR1 251947Z 18018KT 29/22 A2994 RMK A01 T02890218  RH  065%=      5-min Rain = 0
KCR1 251948Z 18018KT 29/22 A2994 RMK A01 T02890216  RH  064%=      5-min Rain = 0
KCR1 251949Z 18014KT 29/22 A2994 RMK A01 T02890218  RH  065%=      5-min Rain = 0
KCR1 251950Z 18015KT 29/22 A2994 RMK A01 T02890218  RH  065%=      5-min Rain = 0
KCR1 251951Z 18015KT 29/22 A2993 RMK A01 T02890218  RH  065%=      5-min Rain = 0
KCR1 251952Z 18013KT 29/22 A2993 RMK A01 T02890217  RH  065%=      5-min Rain = 0
KCR1 251953Z 18013KT 29/22 A2993 RMK A01 T02890219  RH  066%=      5-min Rain = 0
KCR1 251954Z 18014KT 29/22 A2993 RMK A01 T02900220  RH  066%=      5-min Rain = 0
KCR1 251955Z 18014KT 29/22 A2993 RMK A01 T02900219  RH  065%=      5-min Rain = 0
KCR1 251956Z 17014KT 29/22 A2993 RMK A01 T02900220  RH  066%=      5-min Rain = 0
KCR1 251957Z 18016KT 29/22 A2993 RMK A01 T02910218  RH  065%=      5-min Rain = 0
KCR1 251958Z 18016KT 29/22 A2993 RMK A01 T02900218  RH  065%=      5-min Rain = 0
KCR1 251959Z 17015KT 29/22 A2993 RMK A01 T02890218  RH  066%=      5-min Rain = 0
KCR1 252000Z 18013KT 29/22 A2993 RMK A01 T02880217  RH  065%=      5-min Rain = 0
KCR1 252001Z 18015KT 29/22 A2993 RMK A01 T02880217  RH  066%=      5-min Rain = 0
KCR1 252002Z 18015KT 29/22 A2993 RMK A01 T02870216  RH  065%=      5-min Rain = 0
KCR1 252003Z 17012KT 29/22 A2993 RMK A01 T02870217  RH  066%=      5-min Rain = 0
KCR1 252004Z 18014KT 29/22 A2993 RMK A01 T02860216  RH  066%=      5-min Rain = 0
KCR1 252005Z 17015KT 29/22 A2993 RMK A01 T02870217  RH  066%=      5-min Rain = 0
KCR1 252006Z 18012KT 29/22 A2993 RMK A01 T02870218  RH  066%=      5-min Rain = 0
KCR1 252007Z 18015G20KT 29/22 A2993 RMK A01 T02880218  RH  066%=      5-min Rain = 0
KCR1 252008Z 17014KT 29/22 A2992 RMK A01 T02900220  RH  066%=      5-min Rain = 0
KCR1 252009Z 17015KT 29/22 A2992 RMK A01 T02930222  RH  065%=      5-min Rain = 0
KCR1 252010Z 17015KT 30/22 A2992 RMK A01 T02960222  RH  064%=      5-min Rain = 0
KCR1 252011Z 17017KT 30/22 A2992 RMK A01 T02970220  RH  063%=      5-min Rain = 0
KCR1 252012Z 18016G21KT 30/22 A2992 RMK A01 T02960219  RH  063%=      5-min Rain = 0
KCR1 252013Z 17015KT 29/22 A2992 RMK A01 T02940219  RH  064%=      5-min Rain = 0
KCR1 252014Z 18018KT 29/22 A2992 RMK A01 T02920216  RH  064%=      5-min Rain = 0
KCR1 252015Z 17017KT 29/22 A2992 RMK A01 T02910217  RH  064%=      5-min Rain = 0
KCR1 252016Z 17015KT 29/22 A2992 RMK A01 T02910218  RH  065%=      5-min Rain = 0
KCR1 252017Z 18015KT 29/22 A2992 RMK A01 T02910218  RH  065%=      5-min Rain = 0
KCR1 252018Z 17013KT 29/22 A2992 RMK A01 T02910221  RH  066%=      5-min Rain = 0
KCR1 252019Z 18015KT 29/22 A2992 RMK A01 T02910220  RH  065%=      5-min Rain = 0
KCR1 252020Z 18016KT 29/22 A2992 RMK A01 T02910218  RH  064%=      5-min Rain = 0
KCR1 252021Z 17013KT 29/22 A2992 RMK A01 T02920219  RH  065%=      5-min Rain = 0
KCR1 252022Z 18014KT 29/22 A2992 RMK A01 T02930220  RH  065%=      5-min Rain = 0
KCR1 252023Z 18018KT 30/22 A2992 RMK A01 T02950218  RH  064%=      5-min Rain = 0
KCR1 252024Z 18015KT 30/22 A2992 RMK A01 T02950219  RH  064%=      5-min Rain = 0
KCR1 252025Z 17013KT 30/22 A2992 RMK A01 T02970222  RH  064%=      5-min Rain = 0
KCR1 252026Z 17016KT 30/22 A2992 RMK A01 T02980221  RH  063%=      5-min Rain = 0
KCR1 252027Z 17016KT 30/22 A2992 RMK A01 T02980219  RH  063%=      5-min Rain = 0
KCR1 252028Z 18017KT 30/22 A2992 RMK A01 T02960220  RH  064%=      5-min Rain = 0
KCR1 252029Z 17018KT 29/22 A2992 RMK A01 T02940217  RH  063%=      5-min Rain = 0
KCR1 252030Z 17020KT 29/22 A2992 RMK A01 T02920216  RH  064%=      5-min Rain = 0
KCR1 252031Z 18020KT 29/22 A2992 RMK A01 T02920217  RH  064%=      5-min Rain = 0
KCR1 252032Z 18020KT 29/22 A2992 RMK A01 T02910217  RH  065%=      5-min Rain = 0
KCR1 252033Z 18017KT 29/22 A2992 RMK A01 T02900218  RH  065%=      5-min Rain = 0
KCR1 252034Z 18015KT 29/22 A2992 RMK A01 T02890219  RH  066%=      5-min Rain = 0
KCR1 252035Z 18015KT 29/22 A2992 RMK A01 T02890219  RH  066%=      5-min Rain = 0
KCR1 252036Z 19016G21KT 29/22 A2992 RMK A01 T02890219  RH  066%=      5-min Rain = 0
KCR1 252037Z 18014KT 29/22 A2992 RMK A01 T02900219  RH  065%=      5-min Rain = 0
KCR1 252038Z 18012KT 29/22 A2992 RMK A01 T02920224  RH  067%=      5-min Rain = 0
KCR1 252039Z 18012KT 29/22 A2992 RMK A01 T02930224  RH  066%=      5-min Rain = 0
KCR1 252040Z 17013KT 29/23 A2992 RMK A01 T02930225  RH  066%=      5-min Rain = 0
KCR1 252041Z 18013KT 29/22 A2992 RMK A01 T02930222  RH  066%=      5-min Rain = 0
KCR1 252042Z 18016KT 29/22 A2992 RMK A01 T02930219  RH  064%=      5-min Rain = 0
KCR1 252043Z 18016KT 29/22 A2992 RMK A01 T02930216  RH  063%=      5-min Rain = 0
KCR1 252044Z 18015KT 29/22 A2992 RMK A01 T02930218  RH  064%=      5-min Rain = 0
KCR1 252045Z 17016G21KT 30/22 A2992 RMK A01 T02950221  RH  065%=      5-min Rain = 0
KCR1 252046Z 16016KT 30/22 A2991 RMK A01 T02990221  RH  063%=      5-min Rain = 0
KCR1 252047Z 17014G19KT 30/22 A2991 RMK A01 T03030223  RH  063%=      5-min Rain = 0
KCR1 252048Z 18017KT 31/22 A2991 RMK A01 T03050219  RH  060%=      5-min Rain = 0
KCR1 252049Z 18017KT 30/22 A2991 RMK A01 T03040218  RH  060%=      5-min Rain = 0
KCR1 252050Z 18018KT 30/22 A2991 RMK A01 T03010218  RH  061%=      5-min Rain = 0
KCR1 252051Z 18019KT 30/22 A2991 RMK A01 T02990217  RH  061%=      5-min Rain = 0
KCR1 252052Z 19017KT 30/22 A2991 RMK A01 T02960216  RH  062%=      5-min Rain = 0
KCR1 252053Z 18015KT 29/22 A2991 RMK A01 T02940218  RH  064%=      5-min Rain = 0
KCR1 252054Z 17016KT 29/22 A2991 RMK A01 T02930220  RH  065%=      5-min Rain = 0
KCR1 252055Z 17018KT 29/22 A2991 RMK A01 T02930218  RH  064%=      5-min Rain = 0
KCR1 252056Z 17017KT 29/22 A2991 RMK A01 T02940216  RH  063%=      5-min Rain = 0
KCR1 252057Z 16017G22KT 30/22 A2991 RMK A01 T02950217  RH  063%=      5-min Rain = 0
KCR1 252058Z 17019KT 30/22 A2991 RMK A01 T02980219  RH  063%=      5-min Rain = 0
KCR1 252059Z 17019KT 30/22 A2991 RMK A01 T03000218  RH  062%=      5-min Rain = 0
KCR1 252100Z 17018KT 30/22 A2991 RMK A01 T02990219  RH  062%=      5-min Rain = 0
KCR1 252101Z 17018KT 30/22 A2991 RMK A01 T02980219  RH  063%=      5-min Rain = 0
KCR1 252102Z 18016KT 30/22 A2991 RMK A01 T02960220  RH  064%=      5-min Rain = 0
KCR1 252103Z 17018KT 29/22 A2991 RMK A01 T02940217  RH  063%=      5-min Rain = 0
KCR1 252104Z 18017KT 29/22 A2991 RMK A01 T02940218  RH  064%=      5-min Rain = 0
KCR1 252105Z 18017KT 30/22 A2991 RMK A01 T02950218  RH  063%=      5-min Rain = 0
KCR1 252106Z 18014KT 30/22 A2991 RMK A01 T02980222  RH  064%=      5-min Rain = 0
KCR1 252107Z 18015KT 30/22 A299 RMK A01 T03020222  RH  062%=      5-min Rain = 0
KCR1 252108Z 17016G24KT 30/22 A2991 RMK A01 T03030222  RH  062%=      5-min Rain = 0
KCR1 252109Z 18018KT 30/22 A2991 RMK A01 T03020219  RH  061%=      5-min Rain = 0
KCR1 252110Z 18020KT 30/22 A2991 RMK A01 T02990215  RH  061%=      5-min Rain = 0
KCR1 252111Z 18019KT 30/22 A2991 RMK A01 T02960216  RH  062%=      5-min Rain = 0
KCR1 252112Z 18017KT 30/22 A2991 RMK A01 T02960218  RH  063%=      5-min Rain = 0
KCR1 252113Z 18015KT 30/22 A2991 RMK A01 T02980220  RH  063%=      5-min Rain = 0
KCR1 252114Z 18016KT 30/22 A2991 RMK A01 T03010223  RH  063%=      5-min Rain = 0
KCR1 252115Z 19018KT 30/22 A2991 RMK A01 T03020221  RH  062%=      5-min Rain = 0
KCR1 252116Z 17018KT 30/22 A2991 RMK A01 T03030222  RH  062%=      5-min Rain = 0
KCR1 252117Z 17018KT 30/22 A2991 RMK A01 T03040220  RH  061%=      5-min Rain = 0
KCR1 252118Z 17017KT 30/22 A2991 RMK A01 T03030219  RH  061%=      5-min Rain = 0
KCR1 252119Z 18014KT 30/22 A2991 RMK A01 T03010222  RH  063%=      5-min Rain = 0
KCR1 252120Z 17013KT 30/22 A2991 RMK A01 T02990220  RH  063%=      5-min Rain = 0
KCR1 252121Z 16014KT 30/22 A2991 RMK A01 T02970220  RH  064%=      5-min Rain = 0
KCR1 252122Z 17016KT 30/22 A2991 RMK A01 T02960219  RH  064%=      5-min Rain = 0
KCR1 252123Z 16016KT 30/22 A2991 RMK A01 T02950219  RH  064%=      5-min Rain = 0
KCR1 252124Z 16016KT 30/22 A2991 RMK A01 T02950218  RH  063%=      5-min Rain = 0
KCR1 252125Z 16015KT 30/22 A2991 RMK A01 T02970219  RH  063%=      5-min Rain = 0
KCR1 252126Z 17016KT 30/22 A2991 RMK A01 T03000222  RH  063%=      5-min Rain = 0
KCR1 252127Z 17016KT 30/22 A2991 RMK A01 T03020220  RH  062%=      5-min Rain = 0
KCR1 252128Z 17016KT 30/22 A2991 RMK A01 T03010219  RH  061%=      5-min Rain = 0
KCR1 252129Z 18016KT 30/22 A2991 RMK A01 T02990221  RH  063%=      5-min Rain = 0
KCR1 252130Z 18017KT 30/22 A2991 RMK A01 T02970218  RH  063%=      5-min Rain = 0
KCR1 252131Z 18016G22KT 30/22 A2991 RMK A01 T02950219  RH  064%=      5-min Rain = 0
KCR1 252132Z 16019KT 29/22 A2991 RMK A01 T02940217  RH  063%=      5-min Rain = 0
KCR1 252133Z 17020KT 29/22 A299 RMK A01 T02930215  RH  063%=      5-min Rain = 0
KCR1 252134Z 17018KT 29/22 A299 RMK A01 T02940216  RH  063%=      5-min Rain = 0
KCR1 252135Z 17017KT 30/22 A299 RMK A01 T02980220  RH  063%=      5-min Rain = 0
KCR1 252136Z 17018KT 30/22 A299 RMK A01 T03030223  RH  062%=      5-min Rain = 0
KCR1 252137Z 18021KT 31/22 A299 RMK A01 T03050219  RH  060%=      5-min Rain = 0
KCR1 252138Z 18019KT 30/22 A299 RMK A01 T03030219  RH  061%=      5-min Rain = 0
KCR1 252139Z 18020KT 30/22 A299 RMK A01 T03020218  RH  061%=      5-min Rain = 0
KCR1 252140Z 18017KT 30/22 A299 RMK A01 T03010219  RH  061%=      5-min Rain = 0
KCR1 252141Z 18016KT 30/22 A299 RMK A01 T02980220  RH  063%=      5-min Rain = 0
KCR1 252142Z 17017KT 30/22 A299 RMK A01 T02960220  RH  063%=      5-min Rain = 0
KCR1 252143Z 17017KT 30/22 A2989 RMK A01 T02950221  RH  064%=      5-min Rain = 0
KCR1 252144Z 17019KT 29/22 A2989 RMK A01 T02940218  RH  064%=      5-min Rain = 0
KCR1 252145Z 17021KT 29/22 A2989 RMK A01 T02940216  RH  063%=      5-min Rain = 0
KCR1 252146Z 17016KT 30/22 A2989 RMK A01 T02970219  RH  063%=      5-min Rain = 0
KCR1 252147Z 17014KT 30/22 A2989 RMK A01 T03010224  RH  063%=      5-min Rain = 0
KCR1 252148Z 17016KT 30/22 A2989 RMK A01 T03040222  RH  062%=      5-min Rain = 0
KCR1 252149Z 17017KT 31/22 A2989 RMK A01 T03050221  RH  061%=      5-min Rain = 0
KCR1 252150Z 17015G21KT 31/22 A2989 RMK A01 T03050223  RH  062%=      5-min Rain = 0
KCR1 252151Z 16021KT 31/22 A2988 RMK A01 T03070222  RH  061%=      5-min Rain = 0
KCR1 252152Z 17022G28KT 31/22 A2988 RMK A01 T03080218  RH  059%=      5-min Rain = 0
KCR1 252153Z 18022KT 31/22 A2988 RMK A01 T03080219  RH  059%=      5-min Rain = 0
KCR1 252154Z 17023KT 31/22 A2988 RMK A01 T03070219  RH  059%=      5-min Rain = 0
KCR1 252155Z 17023KT 31/22 A2988 RMK A01 T03070218  RH  059%=      5-min Rain = 0
KCR1 252156Z 17022KT 31/22 A2988 RMK A01 T03050217  RH  059%=      5-min Rain = 0
KCR1 252157Z 17019KT 30/21 A2988 RMK A01 T03010214  RH  060%=      5-min Rain = 0
KCR1 252158Z 17019KT 30/22 A2988 RMK A01 T03000216  RH  061%=      5-min Rain = 0
KCR1 252159Z 17018KT 30/21 A2988 RMK A01 T02990214  RH  060%=      5-min Rain = 0
KCR1 252200Z 17018KT 30/22 A2988 RMK A01 T02990217  RH  062%=      5-min Rain = 0
KCR1 252201Z 18019KT 30/22 A2988 RMK A01 T02990217  RH  062%=      5-min Rain = 0
KCR1 252202Z 17018KT 30/22 A2988 RMK A01 T02990218  RH  062%=      5-min Rain = 0
KCR1 252203Z 17021G27KT 30/22 A2988 RMK A01 T03000219  RH  062%=      5-min Rain = 0
KCR1 252204Z 16023KT 30/22 A2988 RMK A01 T02990216  RH  061%=      5-min Rain = 0
KCR1 252205Z 17017KT 30/22 A2988 RMK A01 T02970217  RH  062%=      5-min Rain = 0
KCR1 252206Z 17019G24KT 30/22 A2988 RMK A01 T02980217  RH  062%=      5-min Rain = 0
KCR1 252207Z 18020KT 30/22 A2988 RMK A01 T03000216  RH  061%=      5-min Rain = 0
KCR1 252208Z 17020KT 30/22 A2988 RMK A01 T03010217  RH  061%=      5-min Rain = 0
KCR1 252209Z 17020KT 30/22 A2988 RMK A01 T03020217  RH  060%=      5-min Rain = 0
KCR1 252210Z 17017KT 30/22 A2988 RMK A01 T03040217  RH  060%=      5-min Rain = 0
KCR1 252211Z 18017KT 31/22 A2987 RMK A01 T03050220  RH  060%=      5-min Rain = 0
KCR1 252212Z 17018KT 31/22 A2987 RMK A01 T03050221  RH  061%=      5-min Rain = 0
KCR1 252213Z 17020G26KT 31/22 A2987 RMK A01 T03060219  RH  060%=      5-min Rain = 0
KCR1 252214Z 17021KT 31/22 A2987 RMK A01 T03060219  RH  060%=      5-min Rain = 0
KCR1 252215Z 17022KT 30/22 A2987 RMK A01 T03030219  RH  061%=      5-min Rain = 0
KCR1 252216Z 16021KT 30/22 A2987 RMK A01 T03000220  RH  062%=      5-min Rain = 0
KCR1 252217Z 16021G26KT 30/22 A2987 RMK A01 T02980219  RH  062%=      5-min Rain = 0
KCR1 252218Z 16019KT 30/22 A2987 RMK A01 T02960218  RH  063%=      5-min Rain = 0
KCR1 252219Z 16019KT 30/22 A2987 RMK A01 T02960218  RH  063%=      5-min Rain = 0
KCR1 252220Z 16018KT 30/22 A2987 RMK A01 T02960219  RH  063%=      5-min Rain = 0
KCR1 252221Z 16017KT 30/22 A2987 RMK A01 T02990222  RH  063%=      5-min Rain = 0
KCR1 252222Z 15018G23KT 30/22 A2987 RMK A01 T03020223  RH  062%=      5-min Rain = 0
KCR1 252223Z 16018KT 30/22 A2987 RMK A01 T03020219  RH  061%=      5-min Rain = 0
KCR1 252224Z 17017G23KT 30/22 A2987 RMK A01 T02990219  RH  062%=      5-min Rain = 0
KCR1 252225Z 17015KT 30/22 A2987 RMK A01 T02980220  RH  063%=      5-min Rain = 0
KCR1 252226Z 17015G20KT 30/22 A2987 RMK A01 T02960221  RH  064%=      5-min Rain = 0
KCR1 252227Z 17013KT 30/22 A2987 RMK A01 T02960221  RH  064%=      5-min Rain = 0
KCR1 252228Z 17015KT 30/22 A2987 RMK A01 T02950222  RH  065%=      5-min Rain = 0
KCR1 252229Z 16017KT 30/22 A2987 RMK A01 T02970221  RH  064%=      5-min Rain = 0
KCR1 252230Z 16018KT 30/22 A2987 RMK A01 T03010221  RH  062%=      5-min Rain = 0
KCR1 252231Z 17017KT 30/22 A2987 RMK A01 T03020222  RH  062%=      5-min Rain = 0
KCR1 252232Z 16017KT 30/22 A2987 RMK A01 T03010221  RH  062%=      5-min Rain = 0
KCR1 252233Z 17017KT 30/22 A2987 RMK A01 T02990222  RH  063%=      5-min Rain = 0
KCR1 252234Z 16019KT 30/22 A2987 RMK A01 T02990217  RH  061%=      5-min Rain = 0
KCR1 252235Z 17020KT 30/22 A2987 RMK A01 T03010216  RH  060%=      5-min Rain = 0
KCR1 252236Z 17017KT 30/22 A2987 RMK A01 T03030218  RH  061%=      5-min Rain = 0
KCR1 252237Z 17022KT 30/22 A2987 RMK A01 T03040217  RH  060%=      5-min Rain = 0
KCR1 252238Z 17018KT 30/22 A2987 RMK A01 T03030217  RH  060%=      5-min Rain = 0
KCR1 252239Z 17018G23KT 30/22 A2987 RMK A01 T03020219  RH  061%=      5-min Rain = 0
KCR1 252240Z 18019KT 30/22 A2987 RMK A01 T03030218  RH  061%=      5-min Rain = 0
KCR1 252241Z 17020KT 30/22 A2988 RMK A01 T03030217  RH  060%=      5-min Rain = 0
KCR1 252242Z 17015KT 30/22 A2988 RMK A01 T03020218  RH  061%=      5-min Rain = 0
KCR1 252243Z 16016KT 30/22 A2988 RMK A01 T03010222  RH  063%=      5-min Rain = 0
KCR1 252244Z 16020G26KT 30/22 A2988 RMK A01 T02990218  RH  062%=      5-min Rain = 0
KCR1 252245Z 16017G22KT 30/22 A2988 RMK A01 T02980218  RH  062%=      5-min Rain = 0
KCR1 252246Z 16017G23KT 30/22 A2988 RMK A01 T02970220  RH  063%=      5-min Rain = 0
KCR1 252247Z 16020G25KT 30/22 A2987 RMK A01 T02970219  RH  063%=      5-min Rain = 0
KCR1 252248Z 16018G24KT 30/22 A2987 RMK A01 T02970219  RH  063%=      5-min Rain = 0
KCR1 252249Z 16018G24KT 30/22 A2987 RMK A01 T02960220  RH  064%=      5-min Rain = 0
KCR1 252250Z 16018KT 29/22 A2987 RMK A01 T02940219  RH  064%=      5-min Rain = 0
KCR1 252251Z 17017KT 29/22 A2987 RMK A01 T02930219  RH  064%=      5-min Rain = 0
KCR1 252252Z 17020KT 29/22 A2987 RMK A01 T02930219  RH  064%=      5-min Rain = 0
KCR1 252253Z 18018G23KT 29/22 A2987 RMK A01 T02920217  RH  064%=      5-min Rain = 0
KCR1 252254Z 17019G24KT 29/22 A2987 RMK A01 T02920217  RH  064%=      5-min Rain = 0
KCR1 252255Z 17020KT 29/22 A2987 RMK A01 T02910217  RH  064%=      5-min Rain = 0
KCR1 252256Z 17017KT 29/22 A2987 RMK A01 T02910217  RH  064%=      5-min Rain = 0
KCR1 252257Z 17015KT 29/22 A2987 RMK A01 T02910217  RH  064%=      5-min Rain = 0
KCR1 252258Z 17014KT 29/22 A2987 RMK A01 T02910218  RH  065%=      5-min Rain = 0
KCR1 252259Z 18016G21KT 29/22 A2987 RMK A01 T02920219  RH  065%=      5-min Rain = 0
KCR1 252300Z 17017KT 29/22 A2987 RMK A01 T02940219  RH  064%=      5-min Rain = 0
KCR1 252301Z 17016KT 30/22 A2987 RMK A01 T02970220  RH  063%=      5-min Rain = 0
KCR1 252302Z 18016KT 30/22 A2987 RMK A01 T02990220  RH  063%=      5-min Rain = 0
KCR1 252303Z 18015KT 30/22 A2987 RMK A01 T03010221  RH  062%=      5-min Rain = 0
KCR1 252304Z 18016KT 30/22 A2987 RMK A01 T03030222  RH  062%=      5-min Rain = 0
KCR1 252305Z 17020KT 30/22 A2987 RMK A01 T03020222  RH  062%=      5-min Rain = 0
KCR1 252306Z 18017KT 30/22 A2987 RMK A01 T03010221  RH  062%=      5-min Rain = 0
KCR1 252307Z 17017G22KT 30/22 A2987 RMK A01 T02990220  RH  063%=      5-min Rain = 0
KCR1 252308Z 17018KT 30/22 A2987 RMK A01 T02980218  RH  062%=      5-min Rain = 0
KCR1 252309Z 17017KT 30/22 A2987 RMK A01 T02970218  RH  062%=      5-min Rain = 0
KCR1 252310Z 18017KT 30/22 A2986 RMK A01 T02960218  RH  063%=      5-min Rain = 0
KCR1 252311Z 18017G23KT 30/22 A2986 RMK A01 T02950217  RH  063%=      5-min Rain = 0
KCR1 252312Z 17019KT 29/21 A2986 RMK A01 T02940214  RH  062%=      5-min Rain = 0
KCR1 252313Z 17015KT 29/22 A2986 RMK A01 T02940215  RH  062%=      5-min Rain = 0
KCR1 252314Z 17016KT 29/22 A2986 RMK A01 T02930216  RH  063%=      5-min Rain = 0
KCR1 252315Z 18017KT 29/22 A2986 RMK A01 T02930215  RH  063%=      5-min Rain = 0
KCR1 252316Z 18018KT 29/21 A2986 RMK A01 T02930214  RH  063%=      5-min Rain = 0
KCR1 252317Z 18015KT 29/22 A2986 RMK A01 T02930215  RH  063%=      5-min Rain = 0
KCR1 252318Z 18014KT 29/22 A2986 RMK A01 T02920217  RH  064%=      5-min Rain = 0
KCR1 252319Z 17019KT 29/22 A2986 RMK A01 T02910215  RH  064%=      5-min Rain = 0
KCR1 252320Z 17020KT 29/21 A2986 RMK A01 T02910214  RH  063%=      5-min Rain = 0
KCR1 252321Z 17018G26KT 29/21 A2986 RMK A01 T02910214  RH  063%=      5-min Rain = 0
KCR1 252322Z 17021G26KT 29/21 A2986 RMK A01 T02920214  RH  063%=      5-min Rain = 0
KCR1 252323Z 17018KT 29/21 A2986 RMK A01 T02920214  RH  063%=      5-min Rain = 0
KCR1 252324Z 17019G25KT 29/21 A2986 RMK A01 T02920214  RH  063%=      5-min Rain = 0
KCR1 252325Z 17021KT 29/21 A2986 RMK A01 T02920213  RH  063%=      5-min Rain = 0
KCR1 252326Z 17020KT 29/21 A2986 RMK A01 T02920213  RH  063%=      5-min Rain = 0
KCR1 252327Z 18017KT 29/21 A2986 RMK A01 T02920214  RH  063%=      5-min Rain = 0
KCR1 252328Z 18016KT 29/22 A2986 RMK A01 T02910216  RH  064%=      5-min Rain = 0
KCR1 252329Z 18016KT 29/22 A2986 RMK A01 T02900216  RH  064%=      5-min Rain = 0
KCR1 252330Z 18015KT 29/22 A2986 RMK A01 T02890215  RH  064%=      5-min Rain = 0
KCR1 252331Z 18019KT 29/22 A2986 RMK A01 T02890215  RH  064%=      5-min Rain = 0
KCR1 252332Z 18019KT 29/21 A2986 RMK A01 T02890214  RH  064%=      5-min Rain = 0
KCR1 252333Z 18019KT 29/22 A2986 RMK A01 T02890216  RH  064%=      5-min Rain = 0
KCR1 252334Z 18017G22KT 29/22 A2986 RMK A01 T02890215  RH  064%=      5-min Rain = 0
KCR1 252335Z 18020KT 29/22 A2986 RMK A01 T02890215  RH  064%=      5-min Rain = 0
KCR1 252336Z 18021KT 29/21 A2986 RMK A01 T02890213  RH  063%=      5-min Rain = 0
KCR1 252337Z 18021KT 29/21 A2986 RMK A01 T02900212  RH  063%=      5-min Rain = 0
KCR1 252338Z 18018KT 29/21 A2986 RMK A01 T02900213  RH  063%=      5-min Rain = 0
KCR1 252339Z 18016KT 29/22 A2986 RMK A01 T02890215  RH  064%=      5-min Rain = 0
KCR1 252340Z 18019G28KT 29/21 A2986 RMK A01 T02880213  RH  064%=      5-min Rain = 0
KCR1 252341Z 18021G26KT 29/21 A2986 RMK A01 T02880213  RH  064%=      5-min Rain = 0
KCR1 252342Z 18019KT 29/21 A2986 RMK A01 T02880213  RH  064%=      5-min Rain = 0
KCR1 252343Z 18019KT 29/21 A2985 RMK A01 T02880213  RH  064%=      5-min Rain = 0
KCR1 252344Z 18016G21KT 29/21 A2985 RMK A01 T02870213  RH  064%=      5-min Rain = 0
KCR1 252345Z 18016KT 29/21 A2986 RMK A01 T02860214  RH  065%=      5-min Rain = 0
KCR1 252346Z 18017KT 29/21 A2986 RMK A01 T02850213  RH  065%=      5-min Rain = 0
KCR1 252347Z 18018KT 29/21 A2986 RMK A01 T02850213  RH  065%=      5-min Rain = 0
KCR1 252348Z 18018KT 29/21 A2986 RMK A01 T02850213  RH  065%=      5-min Rain = 0
KCR1 252349Z 17018KT 29/21 A2986 RMK A01 T02860212  RH  065%=      5-min Rain = 0
KCR1 252350Z 18017KT 29/21 A2986 RMK A01 T02860214  RH  065%=      5-min Rain = 0
KCR1 252351Z 18017KT 29/21 A2986 RMK A01 T02850214  RH  065%=      5-min Rain = 0
KCR1 252352Z 17016KT 29/21 A2986 RMK A01 T02850214  RH  065%=      5-min Rain = 0
KCR1 252353Z 18018KT 29/21 A2986 RMK A01 T02850213  RH  065%=      5-min Rain = 0
KCR1 252354Z 18016KT 29/21 A2986 RMK A01 T02850214  RH  066%=      5-min Rain = 0
KCR1 252355Z 18015KT 29/22 A2986 RMK A01 T02850215  RH  066%=      5-min Rain = 0
KCR1 252356Z 18017KT 28/21 A2986 RMK A01 T02840214  RH  066%=      5-min Rain = 0
KCR1 252357Z 18016KT 28/22 A2987 RMK A01 T02840215  RH  066%=      5-min Rain = 0
KCR1 252358Z 18017KT 28/22 A2987 RMK A01 T02840215  RH  066%=      5-min Rain = 0
KCR1 252359Z 18015KT 28/22 A2987 RMK A01 T02840215  RH  066%=      5-min Rain = 0
KCR1 260000Z 17015KT 28/22 A2987 RMK A01 T02830216  RH  067%=      5-min Rain = 0
KCR1 260001Z 18017KT 28/22 A2987 RMK A01 T02830215  RH  067%=      5-min Rain = 0
KCR1 260002Z 17015KT 28/22 A2987 RMK A01 T02820215  RH  067%=      5-min Rain = 0
KCR1 260003Z 17018KT 28/22 A2986 RMK A01 T02830216  RH  067%=      5-min Rain = 0
KCR1 260004Z 18018KT 28/21 A2986 RMK A01 T02820214  RH  067%=      5-min Rain = 0
KCR1 260005Z 18017KT 28/21 A2986 RMK A01 T02830214  RH  066%=      5-min Rain = 0
KCR1 260006Z 17016KT 28/22 A2986 RMK A01 T02830216  RH  067%=      5-min Rain = 0
KCR1 260007Z 18017G22KT 28/22 A2986 RMK A01 T02820215  RH  067%=      5-min Rain = 0
KCR1 260008Z 18016KT 28/22 A2986 RMK A01 T02820216  RH  067%=      5-min Rain = 0
KCR1 260009Z 17014KT 28/22 A2986 RMK A01 T02810215  RH  068%=      5-min Rain = 0
KCR1 260010Z 18016KT 28/22 A2986 RMK A01 T02810216  RH  068%=      5-min Rain = 0
KCR1 260011Z 18016KT 28/22 A2986 RMK A01 T02800216  RH  068%=      5-min Rain = 0
KCR1 260012Z 18017KT 28/22 A2987 RMK A01 T02800216  RH  068%=      5-min Rain = 0
KCR1 260013Z 18017KT 28/22 A2987 RMK A01 T02800215  RH  068%=      5-min Rain = 0
KCR1 260014Z 18014KT 28/22 A2987 RMK A01 T02800216  RH  068%=      5-min Rain = 0
KCR1 260015Z 18016KT 28/22 A2987 RMK A01 T02800216  RH  068%=      5-min Rain = 0
KCR1 260016Z 18016G23KT 28/22 A2987 RMK A01 T02800216  RH  068%=      5-min Rain = 0
KCR1 260017Z 18020KT 28/21 A2987 RMK A01 T02800214  RH  067%=      5-min Rain = 0
KCR1 260018Z 18017KT 28/21 A2987 RMK A01 T02810214  RH  067%=      5-min Rain = 0
KCR1 260019Z 18016KT 28/22 A2987 RMK A01 T02810215  RH  067%=      5-min Rain = 0
KCR1 260020Z 18015KT 28/22 A2987 RMK A01 T02810215  RH  068%=      5-min Rain = 0
KCR1 260021Z 18018KT 28/22 A2987 RMK A01 T02800216  RH  068%=      5-min Rain = 0
KCR1 260022Z 18017KT 28/21 A2987 RMK A01 T02800214  RH  067%=      5-min Rain = 0
KCR1 260023Z 18018KT 28/22 A2987 RMK A01 T02800215  RH  068%=      5-min Rain = 0
KCR1 260024Z 17019KT 28/21 A2987 RMK A01 T02800214  RH  067%=      5-min Rain = 0
KCR1 260025Z 17013KT 28/22 A2987 RMK A01 T02800215  RH  067%=      5-min Rain = 0
KCR1 260026Z 17015KT 28/22 A2987 RMK A01 T02800216  RH  068%=      5-min Rain = 0
KCR1 260027Z 17017KT 28/22 A2987 RMK A01 T02790215  RH  068%=      5-min Rain = 0
KCR1 260028Z 17016KT 28/21 A2987 RMK A01 T02790214  RH  068%=      5-min Rain = 0
KCR1 260029Z 17014KT 28/22 A2987 RMK A01 T02790215  RH  068%=      5-min Rain = 0
KCR1 260030Z 17014KT 28/22 A2986 RMK A01 T02790215  RH  068%=      5-min Rain = 0
KCR1 260031Z 17014KT 28/22 A2986 RMK A01 T02780215  RH  069%=      5-min Rain = 0
KCR1 260032Z 17013KT 28/22 A2986 RMK A01 T02770216  RH  069%=      5-min Rain = 0
KCR1 260033Z 17016KT 28/22 A2986 RMK A01 T02770215  RH  069%=      5-min Rain = 0
KCR1 260034Z 17014KT 28/22 A2987 RMK A01 T02770215  RH  069%=      5-min Rain = 0
KCR1 260035Z 17014KT 28/22 A2987 RMK A01 T02770216  RH  069%=      5-min Rain = 0
KCR1 260036Z 18014KT 28/22 A2987 RMK A01 T02770216  RH  069%=      5-min Rain = 0
KCR1 260037Z 17014KT 28/22 A2987 RMK A01 T02770215  RH  069%=      5-min Rain = 0
KCR1 260038Z 18013KT 28/22 A2987 RMK A01 T02770216  RH  069%=      5-min Rain = 0
KCR1 260039Z 18014KT 28/22 A2987 RMK A01 T02760216  RH  070%=      5-min Rain = 0
KCR1 260040Z 17011KT 28/22 A2987 RMK A01 T02760217  RH  070%=      5-min Rain = 0
KCR1 260041Z 17013KT 28/22 A2987 RMK A01 T02760217  RH  070%=      5-min Rain = 0
KCR1 260042Z 17014KT 28/22 A2987 RMK A01 T02750216  RH  070%=      5-min Rain = 0
KCR1 260043Z 18014KT 28/22 A2987 RMK A01 T02750216  RH  070%=      5-min Rain = 0
KCR1 260044Z 17013KT 28/22 A2987 RMK A01 T02750216  RH  070%=      5-min Rain = 0
KCR1 260045Z 17011KT 28/22 A2987 RMK A01 T02750217  RH  071%=      5-min Rain = 0
KCR1 260046Z 17013KT 27/22 A2987 RMK A01 T02740217  RH  071%=      5-min Rain = 0
KCR1 260047Z 17013KT 27/22 A2987 RMK A01 T02740216  RH  071%=      5-min Rain = 0
KCR1 260048Z 17013KT 27/22 A2987 RMK A01 T02740216  RH  071%=      5-min Rain = 0
KCR1 260049Z 17015KT 27/22 A2987 RMK A01 T02740215  RH  070%=      5-min Rain = 0
KCR1 260050Z 17014KT 28/22 A2987 RMK A01 T02750215  RH  070%=      5-min Rain = 0
KCR1 260051Z 17013KT 28/22 A2987 RMK A01 T02750216  RH  070%=      5-min Rain = 0
KCR1 260052Z 17014KT 27/22 A2986 RMK A01 T02740216  RH  071%=      5-min Rain = 0
KCR1 260053Z 17012KT 27/22 A2986 RMK A01 T02740217  RH  071%=      5-min Rain = 0
KCR1 260054Z 16012KT 27/22 A2986 RMK A01 T02730217  RH  071%=      5-min Rain = 0
KCR1 260055Z 17014KT 27/22 A2986 RMK A01 T02720216  RH  071%=      5-min Rain = 0
KCR1 260056Z 17014KT 27/22 A2986 RMK A01 T02720216  RH  071%=      5-min Rain = 0
KCR1 260057Z 17013KT 27/22 A2986 RMK A01 T02720216  RH  071%=      5-min Rain = 0
KCR1 260058Z 17014KT 27/22 A2986 RMK A01 T02720216  RH  071%=      5-min Rain = 0
KCR1 260059Z 17014KT 27/22 A2986 RMK A01 T02720216  RH  071%=      5-min Rain = 0
KCR1 260100Z 17012KT 27/22 A2986 RMK A01 T02720216  RH  071%=      5-min Rain = 0
KCR1 260101Z 17013KT 27/22 A2986 RMK A01 T02720217  RH  072%=      5-min Rain = 0
KCR1 260102Z 17011KT 27/22 A2986 RMK A01 T02720216  RH  072%=      5-min Rain = 0
KCR1 260103Z 17012KT 27/22 A2987 RMK A01 T02720216  RH  072%=      5-min Rain = 0
KCR1 260104Z 17012KT 27/22 A2987 RMK A01 T02720216  RH  072%=      5-min Rain = 0
KCR1 260105Z 17011KT 27/22 A2987 RMK A01 T02710216  RH  072%=      5-min Rain = 0
KCR1 260106Z 17011KT 27/22 A2987 RMK A01 T02720217  RH  072%=      5-min Rain = 0
KCR1 260107Z 17011KT 27/22 A2987 RMK A01 T02710217  RH  072%=      5-min Rain = 0
KCR1 260108Z 17010KT 27/22 A2987 RMK A01 T02700216  RH  072%=      5-min Rain = 0
KCR1 260109Z 17009KT 27/22 A2987 RMK A01 T02710217  RH  073%=      5-min Rain = 0
KCR1 260110Z 17009KT 27/22 A2988 RMK A01 T02690217  RH  073%=      5-min Rain = 0
KCR1 260111Z 17009KT 27/22 A2987 RMK A01 T02690217  RH  073%=      5-min Rain = 0
KCR1 260112Z 17009KT 27/22 A2987 RMK A01 T02680217  RH  074%=      5-min Rain = 0
KCR1 260113Z 17010KT 27/22 A2988 RMK A01 T02680217  RH  074%=      5-min Rain = 0
KCR1 260114Z 17009KT 27/22 A2988 RMK A01 T02680217  RH  074%=      5-min Rain = 0
KCR1 260115Z 18010KT 27/22 A2988 RMK A01 T02680217  RH  074%=      5-min Rain = 0
KCR1 260116Z 17012KT 27/22 A2988 RMK A01 T02680217  RH  074%=      5-min Rain = 0
KCR1 260117Z 18011KT 27/22 A2988 RMK A01 T02680216  RH  073%=      5-min Rain = 0
KCR1 260118Z 18010KT 27/22 A2988 RMK A01 T02690218  RH  073%=      5-min Rain = 0
KCR1 260119Z 18010KT 27/22 A2988 RMK A01 T02690218  RH  074%=      5-min Rain = 0
KCR1 260120Z 18012KT 27/22 A2988 RMK A01 T02680217  RH  073%=      5-min Rain = 0
KCR1 260121Z 18011KT 27/22 A2988 RMK A01 T02690217  RH  073%=      5-min Rain = 0
KCR1 260122Z 18011KT 27/22 A2989 RMK A01 T02690217  RH  073%=      5-min Rain = 0
KCR1 260123Z 18010KT 27/22 A2989 RMK A01 T02690217  RH  073%=      5-min Rain = 0
KCR1 260124Z 18010KT 27/22 A2989 RMK A01 T02690217  RH  073%=      5-min Rain = 0
KCR1 260125Z 18009KT 27/22 A2989 RMK A01 T02690218  RH  073%=      5-min Rain = 0
KCR1 260126Z 18008KT 27/22 A2989 RMK A01 T02690218  RH  074%=      5-min Rain = 0
KCR1 260127Z 18010KT 27/22 A2989 RMK A01 T02680218  RH  074%=      5-min Rain = 0
KCR1 260128Z 18011KT 27/22 A2989 RMK A01 T02670217  RH  074%=      5-min Rain = 0
KCR1 260129Z 18009KT 27/22 A2989 RMK A01 T02680217  RH  073%=      5-min Rain = 0
KCR1 260130Z 18009KT 27/22 A2989 RMK A01 T02680218  RH  074%=      5-min Rain = 0
KCR1 260131Z 18009KT 27/22 A2989 RMK A01 T02670217  RH  074%=      5-min Rain = 0
KCR1 260132Z 18009KT 27/22 A2989 RMK A01 T02670218  RH  074%=      5-min Rain = 0
KCR1 260133Z 18012KT 27/22 A2989 RMK A01 T02660217  RH  074%=      5-min Rain = 0
KCR1 260134Z 18009KT 27/22 A2989 RMK A01 T02680217  RH  074%=      5-min Rain = 0
KCR1 260135Z 18011KT 27/22 A2989 RMK A01 T02670217  RH  074%=      5-min Rain = 0
KCR1 260136Z 18012KT 27/22 A2989 RMK A01 T02670216  RH  074%=      5-min Rain = 0
KCR1 260137Z 18011KT 27/22 A2989 RMK A01 T02690216  RH  073%=      5-min Rain = 0
KCR1 260138Z 18012KT 27/22 A2989 RMK A01 T02690216  RH  073%=      5-min Rain = 0
KCR1 260139Z 18010KT 27/22 A2989 RMK A01 T02690216  RH  073%=      5-min Rain = 0
KCR1 260140Z 18009KT 27/22 A2989 RMK A01 T02690217  RH  073%=      5-min Rain = 0
KCR1 260141Z 18009KT 27/22 A2989 RMK A01 T02680217  RH  074%=      5-min Rain = 0
KCR1 260142Z 18010KT 27/22 A2989 RMK A01 T02660217  RH  074%=      5-min Rain = 0
KCR1 260143Z 19011KT 27/22 A2989 RMK A01 T02660216  RH  074%=      5-min Rain = 0
KCR1 260144Z 18010KT 27/22 A2989 RMK A01 T02660216  RH  074%=      5-min Rain = 0
KCR1 260145Z 18011KT 27/22 A2989 RMK A01 T02660216  RH  074%=      5-min Rain = 0
KCR1 260146Z 18010KT 27/22 A2989 RMK A01 T02670216  RH  074%=      5-min Rain = 0
KCR1 260147Z 18010KT 27/22 A2989 RMK A01 T02670216  RH  074%=      5-min Rain = 0
KCR1 260148Z 18010KT 27/22 A2989 RMK A01 T02670216  RH  074%=      5-min Rain = 0
KCR1 260149Z 18010KT 27/22 A2989 RMK A01 T02670216  RH  074%=      5-min Rain = 0
KCR1 260150Z 18010KT 27/22 A2989 RMK A01 T02670216  RH  074%=      5-min Rain = 0
KCR1 260151Z 18008KT 27/22 A2989 RMK A01 T02660216  RH  074%=      5-min Rain = 0
KCR1 260152Z 19009KT 27/22 A2989 RMK A01 T02660216  RH  074%=      5-min Rain = 0
KCR1 260153Z 18009KT 27/22 A2989 RMK A01 T02650216  RH  074%=      5-min Rain = 0
KCR1 260154Z 18010KT 27/22 A2989 RMK A01 T02650216  RH  074%=      5-min Rain = 0
KCR1 260155Z 18011KT 27/22 A2989 RMK A01 T02650215  RH  074%=      5-min Rain = 0
KCR1 260156Z 18009KT 27/22 A2989 RMK A01 T02650215  RH  074%=      5-min Rain = 0
KCR1 260157Z 18009KT 27/22 A299 RMK A01 T02650216  RH  074%=      5-min Rain = 0
KCR1 260158Z 18009KT 27/22 A299 RMK A01 T02650216  RH  075%=      5-min Rain = 0
KCR1 260159Z 18011KT 26/22 A299 RMK A01 T02640215  RH  075%=      5-min Rain = 0
KCR1 260200Z 19013KT 27/22 A299 RMK A01 T02650215  RH  074%=      5-min Rain = 0
KCR1 260201Z 18010KT 27/22 A299 RMK A01 T02660215  RH  073%=      5-min Rain = 0
KCR1 260202Z 19009KT 27/22 A299 RMK A01 T02660216  RH  074%=      5-min Rain = 0
KCR1 260203Z 19010KT 26/22 A299 RMK A01 T02640216  RH  075%=      5-min Rain = 0
KCR1 260204Z 18010KT 26/22 A299 RMK A01 T02640216  RH  075%=      5-min Rain = 0
KCR1 260205Z 18009KT 26/22 A299 RMK A01 T02630216  RH  075%=      5-min Rain = 0
KCR1 260206Z 18010KT 26/22 A299 RMK A01 T02630215  RH  075%=      5-min Rain = 0
KCR1 260207Z 18010KT 26/22 A299 RMK A01 T02630215  RH  075%=      5-min Rain = 0
KCR1 260208Z 18010KT 26/22 A299 RMK A01 T02630215  RH  075%=      5-min Rain = 0
KCR1 260209Z 19011KT 26/22 A299 RMK A01 T02630215  RH  075%=      5-min Rain = 0
KCR1 260210Z 19010KT 26/22 A299 RMK A01 T02630215  RH  075%=      5-min Rain = 0
KCR1 260211Z 18010KT 26/22 A299 RMK A01 T02640215  RH  075%=      5-min Rain = 0
KCR1 260212Z 18009KT 26/22 A299 RMK A01 T02630215  RH  075%=      5-min Rain = 0
KCR1 260213Z 18009KT 26/22 A299 RMK A01 T02620215  RH  075%=      5-min Rain = 0
KCR1 260214Z 18010KT 26/22 A299 RMK A01 T02610215  RH  076%=      5-min Rain = 0
KCR1 260215Z 18009KT 26/22 A299 RMK A01 T02610216  RH  076%=      5-min Rain = 0
KCR1 260216Z 18009KT 26/22 A299 RMK A01 T02600215  RH  076%=      5-min Rain = 0
KCR1 260217Z 18008KT 26/22 A299 RMK A01 T02600215  RH  076%=      5-min Rain = 0
KCR1 260218Z 18009KT 26/22 A299 RMK A01 T02590215  RH  077%=      5-min Rain = 0
KCR1 260219Z 18009KT 26/22 A299 RMK A01 T02590215  RH  077%=      5-min Rain = 0
KCR1 260220Z 18009KT 26/22 A299 RMK A01 T02580215  RH  077%=      5-min Rain = 0
KCR1 260221Z 18008KT 26/22 A299 RMK A01 T02580216  RH  077%=      5-min Rain = 0
KCR1 260222Z 18009KT 26/22 A299 RMK A01 T02580216  RH  078%=      5-min Rain = 0
KCR1 260223Z 18009KT 26/22 A299 RMK A01 T02570216  RH  078%=      5-min Rain = 0
KCR1 260224Z 18009KT 26/22 A299 RMK A01 T02570216  RH  078%=      5-min Rain = 0
KCR1 260225Z 18009KT 26/22 A299 RMK A01 T02570216  RH  078%=      5-min Rain = 0
KCR1 260226Z 18009KT 26/22 A299 RMK A01 T02570216  RH  078%=      5-min Rain = 0
KCR1 260227Z 18009KT 26/22 A299 RMK A01 T02570216  RH  078%=      5-min Rain = 0
KCR1 260228Z 18009KT 26/22 A299 RMK A01 T02570216  RH  078%=      5-min Rain = 0
KCR1 260229Z 18008KT 26/22 A299 RMK A01 T02570216  RH  078%=      5-min Rain = 0
KCR1 260230Z 18009KT 26/22 A299 RMK A01 T02570217  RH  078%=      5-min Rain = 0
KCR1 260231Z 18008KT 26/22 A299 RMK A01 T02570217  RH  079%=      5-min Rain = 0
KCR1 260232Z 18009KT 26/22 A299 RMK A01 T02570217  RH  079%=      5-min Rain = 0
KCR1 260233Z 18009KT 26/22 A299 RMK A01 T02560217  RH  079%=      5-min Rain = 0
KCR1 260234Z 18008KT 26/22 A299 RMK A01 T02560217  RH  079%=      5-min Rain = 0
KCR1 260235Z 18009KT 26/22 A299 RMK A01 T02560218  RH  079%=      5-min Rain = 0
KCR1 260236Z 18009KT 26/22 A299 RMK A01 T02560217  RH  079%=      5-min Rain = 0
KCR1 260237Z 18009KT 26/22 A299 RMK A01 T02560217  RH  079%=      5-min Rain = 0
KCR1 260238Z 18008KT 26/22 A2991 RMK A01 T02560217  RH  079%=      5-min Rain = 0
KCR1 260239Z 18008KT 26/22 A2991 RMK A01 T02560217  RH  079%=      5-min Rain = 0
KCR1 260240Z 18008KT 26/22 A2991 RMK A01 T02560217  RH  079%=      5-min Rain = 0
KCR1 260241Z 18008KT 26/22 A2991 RMK A01 T02560217  RH  079%=      5-min Rain = 0
KCR1 260242Z 18008KT 26/22 A2991 RMK A01 T02560217  RH  079%=      5-min Rain = 0
KCR1 260243Z 18007KT 26/22 A2991 RMK A01 T02560217  RH  079%=      5-min Rain = 0
KCR1 260244Z 17009KT 26/22 A2991 RMK A01 T02560217  RH  079%=      5-min Rain = 0
KCR1 260245Z 17008KT 26/22 A2991 RMK A01 T02570217  RH  078%=      5-min Rain = 0
KCR1 260246Z 17007KT 26/22 A2991 RMK A01 T02570217  RH  078%=      5-min Rain = 0
KCR1 260247Z 17008KT 26/22 A2991 RMK A01 T02570217  RH  078%=      5-min Rain = 0
KCR1 260248Z 17008KT 26/22 A2991 RMK A01 T02580216  RH  078%=      5-min Rain = 0
KCR1 260249Z 17007KT 26/22 A2991 RMK A01 T02580217  RH  078%=      5-min Rain = 0
KCR1 260250Z 17007KT 26/22 A2991 RMK A01 T02580217  RH  078%=      5-min Rain = 0
KCR1 260251Z 17007KT 26/22 A2991 RMK A01 T02580217  RH  078%=      5-min Rain = 0
KCR1 260252Z 17007KT 26/22 A2991 RMK A01 T02580217  RH  078%=      5-min Rain = 0
KCR1 260253Z 17007KT 26/22 A2992 RMK A01 T02580218  RH  078%=      5-min Rain = 0
KCR1 260254Z 16007KT 26/22 A2992 RMK A01 T02580217  RH  078%=      5-min Rain = 0
KCR1 260255Z 16006KT 26/22 A2992 RMK A01 T02580218  RH  078%=      5-min Rain = 0
KCR1 260256Z 15006KT 26/22 A2992 RMK A01 T02570217  RH  079%=      5-min Rain = 0
KCR1 260257Z 15006KT 26/22 A2992 RMK A01 T02570218  RH  079%=      5-min Rain = 0
KCR1 260258Z 15006KT 26/22 A2992 RMK A01 T02560218  RH  079%=      5-min Rain = 0
KCR1 260259Z 15005KT 26/22 A2992 RMK A01 T02560218  RH  079%=      5-min Rain = 0
KCR1 260300Z 15006KT 26/22 A2992 RMK A01 T02560218  RH  080%=      5-min Rain = 0
KCR1 260301Z 15005KT 26/22 A2992 RMK A01 T02560218  RH  080%=      5-min Rain = 0
KCR1 260302Z 14005KT 26/22 A2992 RMK A01 T02550218  RH  080%=      5-min Rain = 0
KCR1 260303Z 15005KT 26/22 A2992 RMK A01 T02550218  RH  080%=      5-min Rain = 0
KCR1 260304Z 14005KT 26/22 A2992 RMK A01 T02550218  RH  080%=      5-min Rain = 0
KCR1 260305Z 14005KT 26/22 A2992 RMK A01 T02550218  RH  080%=      5-min Rain = 0
KCR1 260306Z 14006KT 25/22 A2992 RMK A01 T02540218  RH  080%=      5-min Rain = 0
KCR1 260307Z 14006KT 26/22 A2992 RMK A01 T02550218  RH  080%=      5-min Rain = 0
KCR1 260308Z 14006KT 25/22 A2992 RMK A01 T02540218  RH  080%=      5-min Rain = 0
KCR1 260309Z 14006KT 25/22 A2992 RMK A01 T02540218  RH  080%=      5-min Rain = 0
KCR1 260310Z 14006KT 25/22 A2992 RMK A01 T02540218  RH  080%=      5-min Rain = 0
KCR1 260311Z 14006KT 25/22 A2992 RMK A01 T02540218  RH  081%=      5-min Rain = 0
KCR1 260312Z 14006KT 25/22 A2992 RMK A01 T02540218  RH  081%=      5-min Rain = 0
KCR1 260313Z 14007KT 25/22 A2992 RMK A01 T02530218  RH  081%=      5-min Rain = 0
KCR1 260314Z 14007KT 25/22 A2992 RMK A01 T02530218  RH  081%=      5-min Rain = 0
KCR1 260315Z 14007KT 25/22 A2993 RMK A01 T02530218  RH  081%=      5-min Rain = 0
KCR1 260316Z 14007KT 25/22 A2993 RMK A01 T02530218  RH  081%=      5-min Rain = 0
KCR1 260317Z 14008KT 25/22 A2993 RMK A01 T02530217  RH  081%=      5-min Rain = 0
KCR1 260318Z 14007KT 25/22 A2993 RMK A01 T02530218  RH  081%=      5-min Rain = 0
KCR1 260319Z 14008KT 25/22 A2993 RMK A01 T02530217  RH  081%=      5-min Rain = 0
KCR1 260320Z 14008KT 25/22 A2993 RMK A01 T02530217  RH  081%=      5-min Rain = 0
KCR1 260321Z 14008KT 25/22 A2993 RMK A01 T02530217  RH  080%=      5-min Rain = 0
KCR1 260322Z 15009KT 25/22 A2993 RMK A01 T02540217  RH  080%=      5-min Rain = 0
KCR1 260323Z 14008KT 25/22 A2993 RMK A01 T02540217  RH  080%=      5-min Rain = 0
KCR1 260324Z 14008KT 25/22 A2993 RMK A01 T02540217  RH  080%=      5-min Rain = 0
KCR1 260325Z 14008KT 26/22 A2993 RMK A01 T02550217  RH  080%=      5-min Rain = 0
KCR1 260326Z 15008KT 25/22 A2993 RMK A01 T02540217  RH  080%=      5-min Rain = 0
KCR1 260327Z 14008KT 25/22 A2993 RMK A01 T02540217  RH  080%=      5-min Rain = 0
KCR1 260328Z 15008KT 26/22 A2993 RMK A01 T02550217  RH  079%=      5-min Rain = 0
KCR1 260329Z 14008KT 26/22 A2993 RMK A01 T02550217  RH  080%=      5-min Rain = 0
KCR1 260330Z 14008KT 26/22 A2993 RMK A01 T02550217  RH  080%=      5-min Rain = 0
KCR1 260331Z 14009KT 25/22 A2993 RMK A01 T02540216  RH  080%=      5-min Rain = 0
KCR1 260332Z 14008KT 25/22 A2993 RMK A01 T02540216  RH  079%=      5-min Rain = 0
KCR1 260333Z 14008KT 25/22 A2993 RMK A01 T02540216  RH  079%=      5-min Rain = 0
KCR1 260334Z 14008KT 25/22 A2993 RMK A01 T02540216  RH  079%=      5-min Rain = 0
KCR1 260335Z 14007KT 25/22 A2993 RMK A01 T02540216  RH  080%=      5-min Rain = 0
KCR1 260336Z 14007KT 25/22 A2993 RMK A01 T02540216  RH  080%=      5-min Rain = 0
KCR1 260337Z 14007KT 25/22 A2993 RMK A01 T02540217  RH  080%=      5-min Rain = 0
KCR1 260338Z 14008KT 25/22 A2994 RMK A01 T02530216  RH  080%=      5-min Rain = 0
KCR1 260339Z 14008KT 25/22 A2994 RMK A01 T02530216  RH  080%=      5-min Rain = 0
KCR1 260340Z 14008KT 25/22 A2994 RMK A01 T02530216  RH  080%=      5-min Rain = 0
KCR1 260341Z 13007KT 25/22 A2994 RMK A01 T02530217  RH  080%=      5-min Rain = 0
KCR1 260342Z 14009KT 25/22 A2994 RMK A01 T02530216  RH  080%=      5-min Rain = 0
KCR1 260343Z 13008KT 25/22 A2994 RMK A01 T02530215  RH  079%=      5-min Rain = 0
KCR1 260344Z 14009KT 25/22 A2994 RMK A01 T02530215  RH  079%=      5-min Rain = 0
KCR1 260345Z 14008KT 25/22 A2994 RMK A01 T02530215  RH  079%=      5-min Rain = 0
KCR1 260346Z 14009KT 25/22 A2994 RMK A01 T02530215  RH  079%=      5-min Rain = 0
KCR1 260347Z 13008KT 25/21 A2994 RMK A01 T02530214  RH  079%=      5-min Rain = 0
KCR1 260348Z 13009KT 25/22 A2994 RMK A01 T02540215  RH  079%=      5-min Rain = 0
KCR1 260349Z 13009KT 25/21 A2994 RMK A01 T02540214  RH  079%=      5-min Rain = 0
KCR1 260350Z 13009KT 25/21 A2994 RMK A01 T02540214  RH  078%=      5-min Rain = 0
KCR1 260351Z 13008KT 26/21 A2994 RMK A01 T02550214  RH  078%=      5-min Rain = 0
KCR1 260352Z 13008KT 26/22 A2994 RMK A01 T02550215  RH  079%=      5-min Rain = 0
KCR1 260353Z 13008KT 25/21 A2994 RMK A01 T02540214  RH  079%=      5-min Rain = 0
KCR1 260354Z 13008KT 25/21 A2994 RMK A01 T02540214  RH  079%=      5-min Rain = 0
KCR1 260355Z 13009KT 25/22 A2994 RMK A01 T02540215  RH  079%=      5-min Rain = 0
KCR1 260356Z 13009KT 25/21 A2994 RMK A01 T02540214  RH  079%=      5-min Rain = 0
KCR1 260357Z 13008KT 25/21 A2994 RMK A01 T02540214  RH  079%=      5-min Rain = 0
KCR1 260358Z 13010KT 25/21 A2994 RMK A01 T02540214  RH  079%=      5-min Rain = 0
KCR1 260359Z 13009KT 25/21 A2994 RMK A01 T02540214  RH  079%=      5-min Rain = 0
KCR1 260400Z 13009KT 25/21 A2994 RMK A01 T02540214  RH  078%=      5-min Rain = 0
KCR1 260401Z 13010KT 25/21 A2994 RMK A01 T02540214  RH  079%=      5-min Rain = 0
KCR1 260402Z 13009KT 25/21 A2994 RMK A01 T02540214  RH  079%=      5-min Rain = 0
KCR1 260403Z 13008KT 25/21 A2994 RMK A01 T02540214  RH  079%=      5-min Rain = 0
KCR1 260404Z 12009KT 25/21 A2994 RMK A01 T02530214  RH  079%=      5-min Rain = 0
KCR1 260405Z 13008KT 25/21 A2994 RMK A01 T02530214  RH  079%=      5-min Rain = 0
KCR1 260406Z 13008KT 25/21 A2994 RMK A01 T02520214  RH  079%=      5-min Rain = 0
KCR1 260407Z 12009KT 25/21 A2994 RMK A01 T02520214  RH  079%=      5-min Rain = 0
KCR1 260408Z 12008KT 25/21 A2994 RMK A01 T02520214  RH  079%=      5-min Rain = 0
KCR1 260409Z 12009KT 25/21 A2994 RMK A01 T02520214  RH  080%=      5-min Rain = 0
KCR1 260410Z 12008KT 25/21 A2994 RMK A01 T02510214  RH  080%=      5-min Rain = 0
KCR1 260411Z 12009KT 25/21 A2994 RMK A01 T02500214  RH  080%=      5-min Rain = 0
KCR1 260412Z 12008KT 25/21 A2994 RMK A01 T02500214  RH  081%=      5-min Rain = 0
KCR1 260413Z 12009KT 25/22 A2994 RMK A01 T02490215  RH  081%=      5-min Rain = 0
KCR1 260414Z 12010KT 25/22 A2994 RMK A01 T02490215  RH  081%=      5-min Rain = 0
KCR1 260415Z 12010KT 25/22 A2994 RMK A01 T02490215  RH  082%=      5-min Rain = 0
KCR1 260416Z 12009KT 25/22 A2994 RMK A01 T02480215  RH  082%=      5-min Rain = 0
KCR1 260417Z 12009KT 25/22 A2994 RMK A01 T02480215  RH  082%=      5-min Rain = 0
KCR1 260418Z 12009KT 25/22 A2994 RMK A01 T02480215  RH  082%=      5-min Rain = 0
KCR1 260419Z 12010KT 25/22 A2994 RMK A01 T02470215  RH  083%=      5-min Rain = 0
KCR1 260420Z 12009KT 25/22 A2994 RMK A01 T02470216  RH  083%=      5-min Rain = 0
KCR1 260421Z 12009KT 25/22 A2994 RMK A01 T02470216  RH  083%=      5-min Rain = 0
KCR1 260422Z 12010KT 25/22 A2994 RMK A01 T02470216  RH  083%=      5-min Rain = 0
KCR1 260423Z 12009KT 25/22 A2994 RMK A01 T02460216  RH  083%=      5-min Rain = 0
KCR1 260424Z 11009KT 25/22 A2994 RMK A01 T02460216  RH  083%=      5-min Rain = 0
KCR1 260425Z 11009KT 25/22 A2994 RMK A01 T02460216  RH  084%=      5-min Rain = 0
KCR1 260426Z 11009KT 25/22 A2994 RMK A01 T02460216  RH  084%=      5-min Rain = 0
KCR1 260427Z 11009KT 25/22 A2994 RMK A01 T02460216  RH  083%=      5-min Rain = 0
KCR1 260428Z 11009KT 25/22 A2994 RMK A01 T02460216  RH  083%=      5-min Rain = 0
KCR1 260429Z 11009KT 25/22 A2994 RMK A01 T02460216  RH  084%=      5-min Rain = 0
KCR1 260430Z 12009KT 25/22 A2994 RMK A01 T02450216  RH  084%=      5-min Rain = 0
KCR1 260431Z 11008KT 24/22 A2994 RMK A01 T02440216  RH  084%=      5-min Rain = 0
KCR1 260432Z 11010KT 24/22 A2994 RMK A01 T02440216  RH  085%=      5-min Rain = 0
KCR1 260433Z 11010KT 24/22 A2994 RMK A01 T02440216  RH  085%=      5-min Rain = 0
KCR1 260434Z 12010KT 24/22 A2994 RMK A01 T02440216  RH  084%=      5-min Rain = 0
KCR1 260435Z 12009KT 24/22 A2994 RMK A01 T02440216  RH  084%=      5-min Rain = 0
KCR1 260436Z 12012KT 24/22 A2994 RMK A01 T02440216  RH  084%=      5-min Rain = 0
KCR1 260437Z 12011KT 24/22 A2994 RMK A01 T02440216  RH  084%=      5-min Rain = 0
KCR1 260438Z 12010KT 24/22 A2994 RMK A01 T02440216  RH  084%=      5-min Rain = 0
KCR1 260439Z 12010KT 24/22 A2994 RMK A01 T02440217  RH  084%=      5-min Rain = 0
KCR1 260440Z 12009KT 24/22 A2994 RMK A01 T02440216  RH  085%=      5-min Rain = 0
KCR1 260441Z 12010KT 24/22 A2994 RMK A01 T02430216  RH  085%=      5-min Rain = 0
KCR1 260442Z 12009KT 24/22 A2994 RMK A01 T02430216  RH  085%=      5-min Rain = 0
KCR1 260443Z 12011KT 24/22 A2994 RMK A01 T02430217  RH  085%=      5-min Rain = 0
KCR1 260444Z 12009KT 24/22 A2994 RMK A01 T02430216  RH  085%=      5-min Rain = 0
KCR1 260445Z 12010KT 24/22 A2994 RMK A01 T02430217  RH  085%=      5-min Rain = 0
KCR1 260446Z 12010KT 24/22 A2994 RMK A01 T02420216  RH  085%=      5-min Rain = 0
KCR1 260447Z 12010KT 24/22 A2994 RMK A01 T02430216  RH  085%=      5-min Rain = 0
KCR1 260448Z 12010KT 24/22 A2994 RMK A01 T02420216  RH  085%=      5-min Rain = 0
KCR1 260449Z 12010KT 24/22 A2994 RMK A01 T02420216  RH  085%=      5-min Rain = 0
KCR1 260450Z 12011KT 24/22 A2994 RMK A01 T02420216  RH  086%=      5-min Rain = 0
KCR1 260451Z 12010KT 24/22 A2994 RMK A01 T02420216  RH  086%=      5-min Rain = 0
KCR1 260452Z 12010KT 24/22 A2994 RMK A01 T02420216  RH  086%=      5-min Rain = 0
KCR1 260453Z 12010KT 24/22 A2994 RMK A01 T02420216  RH  086%=      5-min Rain = 0
KCR1 260454Z 13009KT 24/22 A2995 RMK A01 T02410216  RH  086%=      5-min Rain = 0
KCR1 260455Z 13009KT 24/22 A2995 RMK A01 T02410216  RH  086%=      5-min Rain = 0
KCR1 260456Z 13008KT 24/22 A2995 RMK A01 T02400216  RH  086%=      5-min Rain = 0
KCR1 260457Z 12011KT 24/22 A2995 RMK A01 T02400216  RH  086%=      5-min Rain = 0
KCR1 260458Z 13011KT 24/22 A2995 RMK A01 T02400216  RH  086%=      5-min Rain = 0
KCR1 260459Z 13010KT 24/22 A2995 RMK A01 T02400216  RH  086%=      5-min Rain = 0

Page generated in 0.1398 seconds.